Wetterdaten: Donnerstag, 05.11.2009
Datum Zeit Temp. Innen Temp. Aussen UV X Diff Temp. Feuchte Inne Feuchte Auss Sonnenschein Luftdruck Regen ab 0,1 Wind Sonnenschein Windben
05.11.2009 00:00 14,1 C 7,9 C 0,0 UV-I 0,0 C 57 % 86 % 0 % 988,6 hPa 0,0 l/m 2,4 km/h (1 Bft) 0 min 5,3 km/h (1 Bft)
05.11.2009 00:02 14,1 C 7,9 C 0,0 UV-I 0,0 C 58 % 86 % 0 % 988,6 hPa 0,0 l/m 2,2 km/h (1 Bft) 0 min 2,6 km/h (1 Bft)
05.11.2009 00:04 14,1 C 7,9 C 0,0 UV-I 0,0 C 58 % 86 % 0 % 988,6 hPa 0,0 l/m 2,2 km/h (1 Bft) 0 min 3,6 km/h (1 Bft)
05.11.2009 00:06 14,1 C 7,9 C 0,0 UV-I 0,0 C 58 % 86 % 0 % 988,6 hPa 0,0 l/m 2,4 km/h (1 Bft) 0 min 5,8 km/h (2 Bft)
05.11.2009 00:10 14,3 C 7,9 C 0,0 UV-I 0,0 C 58 % 86 % 0 % 988,6 hPa 0,0 l/m 3,4 km/h (1 Bft) 0 min 8,9 km/h (2 Bft)
05.11.2009 00:12 14,3 C 7,9 C 0,0 UV-I 0,0 C 57 % 86 % 0 % 988,6 hPa 0,0 l/m 3,4 km/h (1 Bft) 0 min 0,0 km/h (0 Bft)
05.11.2009 00:14 14,3 C 7,9 C 0,0 UV-I 0,0 C 57 % 86 % 0 % 988,6 hPa 0,0 l/m 3,6 km/h (1 Bft) 0 min 0,0 km/h (0 Bft)
05.11.2009 00:16 14,3 C 7,9 C 0,0 UV-I 0,0 C 57 % 86 % 0 % 988,6 hPa 0,0 l/m 3,8 km/h (1 Bft) 0 min 3,1 km/h (1 Bft)
05.11.2009 00:18 14,3 C 7,9 C 0,0 UV-I 0,0 C 57 % 86 % 0 % 988,6 hPa 0,0 l/m 3,4 km/h (1 Bft) 0 min 5,5 km/h (1 Bft)
05.11.2009 00:20 14,3 C 7,9 C 0,0 UV-I 0,0 C 57 % 86 % 0 % 988,6 hPa 0,0 l/m 3,4 km/h (1 Bft) 0 min 7,2 km/h (2 Bft)
05.11.2009 00:22 14,3 C 8,0 C 0,0 UV-I 0,0 C 57 % 86 % 0 % 988,6 hPa 0,0 l/m 3,4 km/h (1 Bft) 0 min 2,9 km/h (1 Bft)
05.11.2009 00:24 14,3 C 8,0 C 0,0 UV-I 0,0 C 57 % 86 % 0 % 988,6 hPa 0,0 l/m 3,4 km/h (1 Bft) 0 min 2,6 km/h (1 Bft)
05.11.2009 00:28 14,3 C 8,0 C 0,0 UV-I 0,0 C 57 % 86 % 0 % 988,6 hPa 0,0 l/m 3,8 km/h (1 Bft) 0 min 10,1 km/h (2 Bft)
05.11.2009 00:30 14,3 C 8,1 C 0,0 UV-I 0,0 C 57 % 85 % 0 % 988,6 hPa 0,0 l/m 3,8 km/h (1 Bft) 0 min 4,1 km/h (1 Bft)
05.11.2009 00:32 14,3 C 8,1 C 0,0 UV-I 0,0 C 57 % 85 % 0 % 988,6 hPa 0,0 l/m 3,4 km/h (1 Bft) 0 min 2,4 km/h (1 Bft)
05.11.2009 00:36 14,1 C 8,1 C 0,0 UV-I 0,0 C 57 % 85 % 0 % 988,6 hPa 0,0 l/m 3,4 km/h (1 Bft) 0 min 5,1 km/h (1 Bft)
05.11.2009 00:38 14,3 C 8,0 C 0,0 UV-I 0,0 C 57 % 85 % 0 % 988,6 hPa 0,0 l/m 3,1 km/h (1 Bft) 0 min 0,0 km/h (0 Bft)
05.11.2009 00:42 14,1 C 8,0 C 0,0 UV-I 0,0 C 57 % 85 % 0 % 988,6 hPa 0,0 l/m 2,9 km/h (1 Bft) 0 min 11,1 km/h (2 Bft)
05.11.2009 00:44 14,1 C 8,0 C 0,0 UV-I 0,0 C 57 % 85 % 0 % 988,6 hPa 0,0 l/m 3,4 km/h (1 Bft) 0 min 8,7 km/h (2 Bft)
05.11.2009 00:46 14,1 C 8,0 C 0,0 UV-I 0,0 C 57 % 85 % 0 % 988,6 hPa 0,0 l/m 3,6 km/h (1 Bft) 0 min 4,6 km/h (1 Bft)
05.11.2009 00:48 14,1 C 8,0 C 0,0 UV-I 0,0 C 57 % 85 % 0 % 988,6 hPa 0,0 l/m 3,4 km/h (1 Bft) 0 min 4,1 km/h (1 Bft)
05.11.2009 00:50 14,1 C 8,0 C 0,0 UV-I 0,0 C 57 % 85 % 0 % 988,6 hPa 0,0 l/m 4,1 km/h (1 Bft) 0 min 13,2 km/h (3 Bft)
05.11.2009 00:56 14,1 C 8,1 C 0,0 UV-I 0,0 C 57 % 85 % 0 % 988,6 hPa 0,0 l/m 3,6 km/h (1 Bft) 0 min 5,8 km/h (2 Bft)
05.11.2009 00:58 14,1 C 8,0 C 0,0 UV-I 0,0 C 57 % 85 % 0 % 988,6 hPa 0,0 l/m 3,4 km/h (1 Bft) 0 min 0,0 km/h (0 Bft)
05.11.2009 01:00 14,1 C 8,0 C 0,0 UV-I 0,0 C 57 % 85 % 0 % 988,6 hPa 0,0 l/m 3,4 km/h (1 Bft) 0 min 0,0 km/h (0 Bft)
05.11.2009 01:02 14,1 C 8,0 C 0,0 UV-I 0,0 C 57 % 85 % 0 % 988,6 hPa 0,0 l/m 3,1 km/h (1 Bft) 0 min 11,3 km/h (2 Bft)
05.11.2009 01:06 14,1 C 8,0 C 0,0 UV-I 0,0 C 57 % 85 % 0 % 988,6 hPa 0,0 l/m 3,6 km/h (1 Bft) 0 min 9,4 km/h (2 Bft)
05.11.2009 01:08 14,1 C 8,0 C 0,0 UV-I 0,0 C 57 % 85 % 0 % 988,6 hPa 0,0 l/m 3,4 km/h (1 Bft) 0 min 2,9 km/h (1 Bft)
05.11.2009 01:10 14,1 C 8,1 C 0,0 UV-I 0,0 C 57 % 85 % 0 % 988,6 hPa 0,0 l/m 3,6 km/h (1 Bft) 0 min 14,9 km/h (3 Bft)
05.11.2009 01:12 14,1 C 8,1 C 0,0 UV-I 0,0 C 57 % 85 % 0 % 988,6 hPa 0,0 l/m 3,8 km/h (1 Bft) 0 min 4,8 km/h (1 Bft)
05.11.2009 01:14 14,3 C 8,1 C 0,0 UV-I 0,0 C 57 % 85 % 0 % 988,6 hPa 0,0 l/m 2,9 km/h (1 Bft) 0 min 3,6 km/h (1 Bft)
05.11.2009 01:16 14,1 C 8,1 C 0,0 UV-I 0,0 C 57 % 85 % 0 % 988,8 hPa 0,0 l/m 3,1 km/h (1 Bft) 0 min 9,9 km/h (2 Bft)
05.11.2009 01:18 14,1 C 8,1 C 0,0 UV-I 0,0 C 57 % 85 % 0 % 988,8 hPa 0,0 l/m 2,9 km/h (1 Bft) 0 min 3,4 km/h (1 Bft)
05.11.2009 01:20 14,3 C 8,1 C 0,0 UV-I 0,0 C 57 % 85 % 0 % 988,8 hPa 0,0 l/m 2,9 km/h (1 Bft) 0 min 3,8 km/h (1 Bft)
05.11.2009 01:22 14,3 C 8,1 C 0,0 UV-I 0,0 C 57 % 85 % 0 % 988,8 hPa 0,0 l/m 3,1 km/h (1 Bft) 0 min 13,2 km/h (3 Bft)
05.11.2009 01:24 14,1 C 8,1 C 0,0 UV-I 0,0 C 57 % 85 % 0 % 988,8 hPa 0,0 l/m 3,6 km/h (1 Bft) 0 min 5,3 km/h (1 Bft)
05.11.2009 01:28 14,3 C 8,1 C 0,0 UV-I 0,0 C 57 % 85 % 0 % 988,8 hPa 0,0 l/m 3,6 km/h (1 Bft) 0 min 9,6 km/h (2 Bft)
05.11.2009 01:30 14,3 C 8,1 C 0,0 UV-I 0,0 C 57 % 85 % 0 % 988,8 hPa 0,0 l/m 4,1 km/h (1 Bft) 0 min 7,9 km/h (2 Bft)
05.11.2009 01:32 14,3 C 8,1 C 0,0 UV-I 0,0 C 57 % 85 % 0 % 988,8 hPa 0,0 l/m 3,6 km/h (1 Bft) 0 min 4,3 km/h (1 Bft)
05.11.2009 01:34 14,3 C 8,1 C 0,0 UV-I 0,0 C 57 % 85 % 0 % 988,8 hPa 0,0 l/m 3,1 km/h (1 Bft) 0 min 6,0 km/h (2 Bft)
05.11.2009 01:36 14,3 C 8,2 C 0,0 UV-I 0,0 C 57 % 85 % 0 % 988,2 hPa 0,0 l/m 3,6 km/h (1 Bft) 0 min 15,4 km/h (3 Bft)
05.11.2009 01:38 14,3 C 8,2 C 0,0 UV-I 0,0 C 57 % 85 % 0 % 988,2 hPa 0,0 l/m 4,1 km/h (1 Bft) 0 min 4,1 km/h (1 Bft)
05.11.2009 01:43 14,3 C 8,3 C 0,0 UV-I 0,0 C 57 % 85 % 0 % 988,2 hPa 0,0 l/m 4,8 km/h (1 Bft) 0 min 4,8 km/h (1 Bft)
05.11.2009 01:48 14,3 C 8,2 C 0,0 UV-I 0,0 C 57 % 85 % 0 % 988,2 hPa 0,0 l/m 3,6 km/h (1 Bft) 0 min 5,1 km/h (1 Bft)
05.11.2009 01:53 14,3 C 8,2 C 0,0 UV-I 0,0 C 58 % 86 % 0 % 988,2 hPa 0,0 l/m 3,1 km/h (1 Bft) 0 min 4,8 km/h (1 Bft)
05.11.2009 01:58 14,3 C 8,3 C 0,0 UV-I 0,0 C 58 % 86 % 0 % 988,2 hPa 0,0 l/m 3,4 km/h (1 Bft) 0 min 0,0 km/h (0 Bft)
05.11.2009 02:03 14,3 C 8,2 C 0,0 UV-I 0,0 C 58 % 86 % 0 % 988,2 hPa 0,1 l/m 4,1 km/h (1 Bft) 0 min 3,1 km/h (1 Bft)
05.11.2009 02:08 14,3 C 8,2 C 0,0 UV-I 0,0 C 58 % 86 % 0 % 988,2 hPa 0,2 l/m 3,6 km/h (1 Bft) 0 min 6,5 km/h (2 Bft)
05.11.2009 02:13 14,3 C 8,2 C 0,0 UV-I 0,0 C 59 % 87 % 0 % 988,2 hPa 0,2 l/m 3,4 km/h (1 Bft) 0 min 5,5 km/h (1 Bft)
05.11.2009 02:18 14,3 C 8,3 C 0,0 UV-I 0,0 C 59 % 87 % 0 % 988,4 hPa 0,1 l/m 4,3 km/h (1 Bft) 0 min 8,7 km/h (2 Bft)
05.11.2009 02:23 14,3 C 8,3 C 0,0 UV-I 0,0 C 59 % 87 % 0 % 988,4 hPa 0,1 l/m 5,1 km/h (1 Bft) 0 min 6,0 km/h (2 Bft)
05.11.2009 02:28 14,3 C 8,2 C 0,0 UV-I 0,0 C 59 % 88 % 0 % 988,4 hPa 0,0 l/m 4,1 km/h (1 Bft) 0 min 3,8 km/h (1 Bft)
05.11.2009 02:33 14,3 C 8,1 C 0,0 UV-I 0,0 C 59 % 88 % 0 % 988,4 hPa 0,0 l/m 3,4 km/h (1 Bft) 0 min 6,0 km/h (2 Bft)
05.11.2009 02:38 14,1 C 8,2 C 0,0 UV-I 0,0 C 60 % 88 % 0 % 988,2 hPa 0,0 l/m 4,1 km/h (1 Bft) 0 min 0,0 km/h (0 Bft)
05.11.2009 02:43 14,2 C 8,1 C 0,0 UV-I 0,0 C 60 % 88 % 0 % 988,2 hPa 0,0 l/m 4,6 km/h (1 Bft) 0 min 10,1 km/h (2 Bft)
05.11.2009 02:48 14,2 C 8,1 C 0,0 UV-I 0,0 C 60 % 89 % 0 % 988,2 hPa 0,0 l/m 3,8 km/h (1 Bft) 0 min 7,2 km/h (2 Bft)
05.11.2009 02:53 14,2 C 8,1 C 0,0 UV-I 0,0 C 60 % 89 % 0 % 988,2 hPa 0,0 l/m 4,1 km/h (1 Bft) 0 min 4,6 km/h (1 Bft)
05.11.2009 02:58 14,1 C 8,2 C 0,0 UV-I 0,0 C 60 % 89 % 0 % 988,1 hPa 0,0 l/m 5,3 km/h (1 Bft) 0 min 11,5 km/h (2 Bft)
05.11.2009 03:03 14,1 C 8,3 C 0,0 UV-I 0,0 C 60 % 89 % 0 % 988,1 hPa 0,0 l/m 5,5 km/h (1 Bft) 0 min 8,2 km/h (2 Bft)
05.11.2009 03:08 14,1 C 8,3 C 0,0 UV-I 0,0 C 60 % 89 % 0 % 988,1 hPa 0,0 l/m 5,3 km/h (1 Bft) 0 min 9,1 km/h (2 Bft)
05.11.2009 03:13 14,1 C 8,3 C 0,0 UV-I 0,0 C 60 % 89 % 0 % 988,1 hPa 0,1 l/m 5,3 km/h (1 Bft) 0 min 9,4 km/h (2 Bft)
05.11.2009 03:18 13,9 C 8,2 C 0,0 UV-I 0,0 C 60 % 88 % 0 % 988,4 hPa 0,0 l/m 5,3 km/h (1 Bft) 0 min 6,0 km/h (2 Bft)
05.11.2009 03:23 13,9 C 8,2 C 0,0 UV-I 0,0 C 60 % 88 % 0 % 988,4 hPa 0,0 l/m 5,1 km/h (1 Bft) 0 min 5,1 km/h (1 Bft)
05.11.2009 03:28 13,9 C 8,3 C 0,0 UV-I 0,0 C 60 % 88 % 0 % 988,4 hPa 0,0 l/m 4,6 km/h (1 Bft) 0 min 7,5 km/h (2 Bft)
05.11.2009 03:33 13,9 C 8,3 C 0,0 UV-I 0,0 C 60 % 88 % 0 % 988,4 hPa 0,0 l/m 5,5 km/h (1 Bft) 0 min 5,8 km/h (2 Bft)
05.11.2009 03:38 13,9 C 8,4 C 0,0 UV-I 0,0 C 60 % 88 % 0 % 988,1 hPa 0,0 l/m 6,3 km/h (2 Bft) 0 min 7,9 km/h (2 Bft)
05.11.2009 03:43 14,0 C 8,5 C 0,0 UV-I 0,0 C 60 % 87 % 0 % 988,1 hPa 0,0 l/m 7,0 km/h (2 Bft) 0 min 7,9 km/h (2 Bft)
05.11.2009 03:48 14,0 C 8,4 C 0,0 UV-I 0,0 C 60 % 87 % 0 % 988,1 hPa 0,0 l/m 6,5 km/h (2 Bft) 0 min 6,5 km/h (2 Bft)
05.11.2009 03:53 13,9 C 8,4 C 0,0 UV-I 0,0 C 60 % 87 % 0 % 988,1 hPa 0,0 l/m 6,5 km/h (2 Bft) 0 min 13,0 km/h (3 Bft)
05.11.2009 03:58 14,0 C 8,4 C 0,0 UV-I 0,0 C 60 % 87 % 0 % 988,5 hPa 0,0 l/m 6,7 km/h (2 Bft) 0 min 14,4 km/h (3 Bft)
05.11.2009 04:03 14,0 C 8,5 C 0,0 UV-I 0,0 C 60 % 87 % 0 % 988,5 hPa 0,0 l/m 7,5 km/h (2 Bft) 0 min 11,5 km/h (2 Bft)
05.11.2009 04:08 14,0 C 8,5 C 0,0 UV-I 0,0 C 60 % 87 % 0 % 988,5 hPa 0,0 l/m 7,5 km/h (2 Bft) 0 min 6,5 km/h (2 Bft)
05.11.2009 04:13 14,0 C 8,5 C 0,0 UV-I 0,0 C 60 % 87 % 0 % 988,5 hPa 0,0 l/m 6,7 km/h (2 Bft) 0 min 4,8 km/h (1 Bft)
05.11.2009 04:15 14,0 C 8,5 C 0,0 UV-I 0,0 C 60 % 87 % 0 % 988,4 hPa 0,0 l/m 6,3 km/h (2 Bft) 0 min 10,8 km/h (2 Bft)
05.11.2009 04:16 14,0 C 8,5 C 0,0 UV-I 0,0 C 60 % 87 % 0 % 988,4 hPa 0,0 l/m 6,3 km/h (2 Bft) 0 min 10,8 km/h (2 Bft)
05.11.2009 04:18 14,0 C 8,5 C 0,0 UV-I 0,0 C 60 % 87 % 0 % 988,4 hPa 0,0 l/m 6,3 km/h (2 Bft) 0 min 4,6 km/h (1 Bft)
05.11.2009 04:20 14,0 C 8,5 C 0,0 UV-I 0,0 C 60 % 87 % 0 % 988,4 hPa 0,0 l/m 6,0 km/h (2 Bft) 0 min 15,4 km/h (3 Bft)
05.11.2009 04:22 14,0 C 8,5 C 0,0 UV-I 0,0 C 60 % 87 % 0 % 988,4 hPa 0,0 l/m 6,0 km/h (2 Bft) 0 min 4,8 km/h (1 Bft)
05.11.2009 04:24 14,0 C 8,6 C 0,0 UV-I 0,0 C 60 % 87 % 0 % 988,4 hPa 0,0 l/m 6,0 km/h (2 Bft) 0 min 4,6 km/h (1 Bft)
05.11.2009 04:26 14,0 C 8,6 C 0,0 UV-I 0,0 C 60 % 87 % 0 % 988,4 hPa 0,0 l/m 6,3 km/h (2 Bft) 0 min 7,5 km/h (2 Bft)
05.11.2009 04:28 14,0 C 8,5 C 0,0 UV-I 0,0 C 60 % 87 % 0 % 988,4 hPa 0,0 l/m 6,5 km/h (2 Bft) 0 min 6,0 km/h (2 Bft)
05.11.2009 04:30 14,0 C 8,5 C 0,0 UV-I 0,0 C 60 % 87 % 0 % 988,4 hPa 0,0 l/m 6,5 km/h (2 Bft) 0 min 8,7 km/h (2 Bft)
05.11.2009 04:32 14,0 C 8,6 C 0,0 UV-I 0,0 C 60 % 86 % 0 % 988,4 hPa 0,0 l/m 6,3 km/h (2 Bft) 0 min 14,0 km/h (3 Bft)
05.11.2009 04:34 14,0 C 8,6 C 0,0 UV-I 0,0 C 60 % 86 % 0 % 988,4 hPa 0,0 l/m 6,3 km/h (2 Bft) 0 min 10,6 km/h (2 Bft)
05.11.2009 04:36 14,0 C 8,7 C 0,0 UV-I 0,0 C 60 % 86 % 0 % 988,5 hPa 0,0 l/m 6,5 km/h (2 Bft) 0 min 4,3 km/h (1 Bft)
05.11.2009 04:38 14,0 C 8,6 C 0,0 UV-I 0,0 C 60 % 86 % 0 % 988,5 hPa 0,0 l/m 6,3 km/h (2 Bft) 0 min 7,7 km/h (2 Bft)
05.11.2009 04:40 14,0 C 8,7 C 0,0 UV-I 0,0 C 60 % 86 % 0 % 988,5 hPa 0,0 l/m 6,3 km/h (2 Bft) 0 min 7,0 km/h (2 Bft)
05.11.2009 04:42 14,0 C 8,7 C 0,0 UV-I 0,0 C 60 % 86 % 0 % 988,5 hPa 0,0 l/m 6,3 km/h (2 Bft) 0 min 6,5 km/h (2 Bft)
05.11.2009 04:44 14,0 C 8,7 C 0,0 UV-I 0,0 C 60 % 86 % 0 % 988,5 hPa 0,0 l/m 5,5 km/h (1 Bft) 0 min 8,2 km/h (2 Bft)
05.11.2009 04:46 14,0 C 8,7 C 0,0 UV-I 0,0 C 60 % 86 % 0 % 988,5 hPa 0,0 l/m 5,8 km/h (2 Bft) 0 min 11,8 km/h (2 Bft)
05.11.2009 04:48 14,0 C 8,7 C 0,0 UV-I 0,0 C 60 % 86 % 0 % 988,5 hPa 0,0 l/m 5,8 km/h (2 Bft) 0 min 5,1 km/h (1 Bft)
05.11.2009 04:50 14,0 C 8,7 C 0,0 UV-I 0,0 C 60 % 86 % 0 % 988,5 hPa 0,0 l/m 5,5 km/h (1 Bft) 0 min 4,3 km/h (1 Bft)
05.11.2009 04:52 14,0 C 8,7 C 0,0 UV-I 0,0 C 60 % 86 % 0 % 988,5 hPa 0,0 l/m 5,5 km/h (1 Bft) 0 min 4,6 km/h (1 Bft)
05.11.2009 04:54 14,0 C 8,7 C 0,0 UV-I 0,0 C 60 % 86 % 0 % 988,5 hPa 0,0 l/m 5,5 km/h (1 Bft) 0 min 3,4 km/h (1 Bft)
05.11.2009 04:56 14,0 C 8,7 C 0,0 UV-I 0,0 C 60 % 86 % 0 % 988,5 hPa 0,0 l/m 5,3 km/h (1 Bft) 0 min 3,4 km/h (1 Bft)
05.11.2009 04:58 14,0 C 8,7 C 0,0 UV-I 0,0 C 60 % 86 % 0 % 988,5 hPa 0,0 l/m 4,3 km/h (1 Bft) 0 min 5,1 km/h (1 Bft)
05.11.2009 05:00 14,0 C 8,6 C 0,0 UV-I 0,0 C 60 % 86 % 0 % 988,5 hPa 0,0 l/m 4,3 km/h (1 Bft) 0 min 6,5 km/h (2 Bft)
05.11.2009 05:02 14,0 C 8,6 C 0,0 UV-I 0,0 C 60 % 86 % 0 % 988,5 hPa 0,0 l/m 4,6 km/h (1 Bft) 0 min 18,0 km/h (3 Bft)
05.11.2009 05:04 14,0 C 8,6 C 0,0 UV-I 0,0 C 60 % 85 % 0 % 988,5 hPa 0,0 l/m 4,6 km/h (1 Bft) 0 min 5,5 km/h (1 Bft)
05.11.2009 05:06 14,0 C 8,7 C 0,0 UV-I 0,0 C 60 % 86 % 0 % 988,5 hPa 0,0 l/m 4,8 km/h (1 Bft) 0 min 4,6 km/h (1 Bft)
05.11.2009 05:08 14,0 C 8,7 C 0,0 UV-I 0,0 C 60 % 86 % 0 % 988,5 hPa 0,0 l/m 4,3 km/h (1 Bft) 0 min 3,1 km/h (1 Bft)
05.11.2009 05:10 14,0 C 8,7 C 0,0 UV-I 0,0 C 60 % 86 % 0 % 988,5 hPa 0,0 l/m 4,6 km/h (1 Bft) 0 min 5,1 km/h (1 Bft)
05.11.2009 05:12 14,0 C 8,7 C 0,0 UV-I 0,0 C 60 % 86 % 0 % 988,5 hPa 0,0 l/m 4,6 km/h (1 Bft) 0 min 14,9 km/h (3 Bft)
05.11.2009 05:14 14,0 C 8,7 C 0,0 UV-I 0,0 C 60 % 86 % 0 % 988,5 hPa 0,0 l/m 4,6 km/h (1 Bft) 0 min 9,4 km/h (2 Bft)
05.11.2009 05:16 14,0 C 8,7 C 0,0 UV-I 0,0 C 60 % 86 % 0 % 988,5 hPa 0,0 l/m 4,1 km/h (1 Bft) 0 min 2,4 km/h (1 Bft)
05.11.2009 05:18 14,0 C 8,7 C 0,0 UV-I 0,0 C 60 % 86 % 0 % 988,5 hPa 0,0 l/m 4,3 km/h (1 Bft) 0 min 9,1 km/h (2 Bft)
05.11.2009 05:20 14,0 C 8,6 C 0,0 UV-I 0,0 C 60 % 86 % 0 % 988,5 hPa 0,0 l/m 5,3 km/h (1 Bft) 0 min 16,6 km/h (3 Bft)
05.11.2009 05:22 14,0 C 8,6 C 0,0 UV-I 0,0 C 60 % 86 % 0 % 988,5 hPa 0,0 l/m 5,8 km/h (2 Bft) 0 min 4,8 km/h (1 Bft)
05.11.2009 05:24 14,0 C 8,7 C 0,0 UV-I 0,0 C 60 % 86 % 0 % 988,5 hPa 0,0 l/m 5,3 km/h (1 Bft) 0 min 4,1 km/h (1 Bft)
05.11.2009 05:26 14,0 C 8,7 C 0,0 UV-I 0,0 C 60 % 86 % 0 % 988,5 hPa 0,0 l/m 5,5 km/h (1 Bft) 0 min 4,1 km/h (1 Bft)
05.11.2009 05:28 14,0 C 8,6 C 0,0 UV-I 0,0 C 60 % 86 % 0 % 988,5 hPa 0,0 l/m 6,0 km/h (2 Bft) 0 min 7,5 km/h (2 Bft)
05.11.2009 05:30 14,0 C 8,6 C 0,0 UV-I 0,0 C 60 % 86 % 0 % 988,5 hPa 0,0 l/m 6,3 km/h (2 Bft) 0 min 5,8 km/h (2 Bft)
05.11.2009 05:32 14,0 C 8,6 C 0,0 UV-I 0,0 C 60 % 86 % 0 % 988,5 hPa 0,0 l/m 5,3 km/h (1 Bft) 0 min 5,3 km/h (1 Bft)
05.11.2009 05:34 14,0 C 8,6 C 0,0 UV-I 0,0 C 60 % 86 % 0 % 988,5 hPa 0,0 l/m 5,5 km/h (1 Bft) 0 min 7,5 km/h (2 Bft)
05.11.2009 05:36 14,0 C 8,7 C 0,0 UV-I 0,0 C 60 % 86 % 0 % 988,7 hPa 0,0 l/m 4,8 km/h (1 Bft) 0 min 3,1 km/h (1 Bft)
05.11.2009 05:38 14,0 C 8,6 C 0,0 UV-I 0,0 C 60 % 86 % 0 % 988,7 hPa 0,0 l/m 4,3 km/h (1 Bft) 0 min 4,1 km/h (1 Bft)
05.11.2009 05:40 14,0 C 8,7 C 0,0 UV-I 0,0 C 60 % 86 % 0 % 988,7 hPa 0,0 l/m 4,1 km/h (1 Bft) 0 min 4,1 km/h (1 Bft)
05.11.2009 05:42 14,0 C 8,6 C 0,0 UV-I 0,0 C 60 % 86 % 0 % 988,7 hPa 0,0 l/m 4,3 km/h (1 Bft) 0 min 6,5 km/h (2 Bft)
05.11.2009 05:44 14,0 C 8,7 C 0,0 UV-I 0,0 C 60 % 86 % 0 % 988,7 hPa 0,0 l/m 4,1 km/h (1 Bft) 0 min 6,0 km/h (2 Bft)
05.11.2009 05:46 14,0 C 8,7 C 0,0 UV-I 0,0 C 60 % 86 % 0 % 988,7 hPa 0,0 l/m 4,3 km/h (1 Bft) 0 min 6,7 km/h (2 Bft)
05.11.2009 05:48 14,0 C 8,6 C 0,0 UV-I 0,0 C 60 % 86 % 0 % 988,7 hPa 0,0 l/m 4,6 km/h (1 Bft) 0 min 6,7 km/h (2 Bft)
05.11.2009 05:50 14,0 C 8,7 C 0,0 UV-I 0,0 C 60 % 86 % 0 % 988,7 hPa 0,0 l/m 4,8 km/h (1 Bft) 0 min 6,5 km/h (2 Bft)
05.11.2009 05:52 14,0 C 8,7 C 0,0 UV-I 0,0 C 60 % 86 % 0 % 988,7 hPa 0,0 l/m 4,8 km/h (1 Bft) 0 min 5,5 km/h (1 Bft)
05.11.2009 05:54 14,0 C 8,7 C 0,0 UV-I 0,0 C 60 % 86 % 0 % 988,7 hPa 0,0 l/m 4,8 km/h (1 Bft) 0 min 2,4 km/h (1 Bft)
05.11.2009 05:56 14,0 C 8,7 C 0,0 UV-I 0,0 C 60 % 86 % 0 % 988,9 hPa 0,0 l/m 5,1 km/h (1 Bft) 0 min 6,7 km/h (2 Bft)
05.11.2009 05:58 14,0 C 8,7 C 0,0 UV-I 0,0 C 60 % 86 % 0 % 988,9 hPa 0,0 l/m 4,8 km/h (1 Bft) 0 min 3,8 km/h (1 Bft)
05.11.2009 06:00 14,0 C 8,7 C 0,0 UV-I 0,0 C 60 % 86 % 0 % 988,9 hPa 0,0 l/m 4,8 km/h (1 Bft) 0 min 9,6 km/h (2 Bft)
05.11.2009 06:02 13,9 C 8,7 C 0,0 UV-I 0,0 C 60 % 86 % 0 % 988,9 hPa 0,0 l/m 5,5 km/h (1 Bft) 0 min 10,6 km/h (2 Bft)
05.11.2009 06:04 14,0 C 8,6 C 0,0 UV-I 0,0 C 60 % 85 % 0 % 988,9 hPa 0,0 l/m 5,5 km/h (1 Bft) 0 min 6,5 km/h (2 Bft)
05.11.2009 06:06 14,0 C 8,6 C 0,0 UV-I 0,0 C 60 % 85 % 0 % 988,9 hPa 0,0 l/m 6,5 km/h (2 Bft) 0 min 6,5 km/h (2 Bft)
05.11.2009 06:08 14,0 C 8,6 C 0,0 UV-I 0,0 C 60 % 85 % 0 % 988,9 hPa 0,0 l/m 6,7 km/h (2 Bft) 0 min 4,8 km/h (1 Bft)
05.11.2009 06:10 14,0 C 8,6 C 0,0 UV-I 0,0 C 60 % 85 % 0 % 988,9 hPa 0,0 l/m 7,0 km/h (2 Bft) 0 min 7,2 km/h (2 Bft)
05.11.2009 06:12 14,0 C 8,6 C 0,0 UV-I 0,0 C 60 % 85 % 0 % 988,9 hPa 0,1 l/m 6,5 km/h (2 Bft) 0 min 2,9 km/h (1 Bft)
05.11.2009 06:14 14,0 C 8,6 C 0,0 UV-I 0,0 C 60 % 86 % 0 % 988,9 hPa 0,0 l/m 6,5 km/h (2 Bft) 0 min 10,3 km/h (2 Bft)
05.11.2009 06:16 14,0 C 8,7 C 0,0 UV-I 0,0 C 60 % 86 % 0 % 988,9 hPa 0,0 l/m 5,5 km/h (1 Bft) 0 min 4,6 km/h (1 Bft)
05.11.2009 06:18 14,0 C 8,7 C 0,0 UV-I 0,0 C 60 % 86 % 0 % 988,9 hPa 0,2 l/m 5,3 km/h (1 Bft) 0 min 5,8 km/h (2 Bft)
05.11.2009 06:20 14,0 C 8,7 C 0,0 UV-I 0,0 C 60 % 86 % 0 % 988,9 hPa 0,0 l/m 5,8 km/h (2 Bft) 0 min 4,6 km/h (1 Bft)
05.11.2009 06:22 14,0 C 8,7 C 0,0 UV-I 0,0 C 60 % 86 % 0 % 988,9 hPa 0,0 l/m 5,5 km/h (1 Bft) 0 min 6,0 km/h (2 Bft)
05.11.2009 06:24 14,0 C 8,6 C 0,0 UV-I 0,0 C 60 % 86 % 0 % 988,9 hPa 0,1 l/m 5,8 km/h (2 Bft) 0 min 5,8 km/h (2 Bft)
05.11.2009 06:26 14,0 C 8,5 C 0,0 UV-I 0,0 C 60 % 87 % 0 % 988,9 hPa 0,0 l/m 5,5 km/h (1 Bft) 0 min 5,3 km/h (1 Bft)
05.11.2009 06:28 14,0 C 8,5 C 0,0 UV-I 0,0 C 60 % 87 % 0 % 988,9 hPa 0,0 l/m 5,5 km/h (1 Bft) 0 min 8,7 km/h (2 Bft)
05.11.2009 06:30 14,0 C 8,5 C 0,0 UV-I 0,0 C 60 % 87 % 0 % 988,9 hPa 0,2 l/m 5,1 km/h (1 Bft) 0 min 9,4 km/h (2 Bft)
05.11.2009 06:32 14,0 C 8,5 C 0,0 UV-I 0,0 C 60 % 87 % 0 % 988,9 hPa 0,0 l/m 5,1 km/h (1 Bft) 0 min 11,3 km/h (2 Bft)
05.11.2009 06:34 14,0 C 8,5 C 0,0 UV-I 0,0 C 61 % 87 % 0 % 988,9 hPa 0,1 l/m 4,8 km/h (1 Bft) 0 min 2,4 km/h (1 Bft)
05.11.2009 06:36 14,0 C 8,4 C 0,0 UV-I 0,0 C 60 % 87 % 0 % 989,2 hPa 0,1 l/m 4,3 km/h (1 Bft) 0 min 5,5 km/h (1 Bft)
05.11.2009 06:38 13,8 C 8,4 C 0,0 UV-I 0,0 C 61 % 87 % 0 % 989,2 hPa 0,0 l/m 4,1 km/h (1 Bft) 0 min 3,6 km/h (1 Bft)
05.11.2009 06:40 14,0 C 8,4 C 0,0 UV-I 0,0 C 61 % 87 % 0 % 989,2 hPa 0,0 l/m 3,8 km/h (1 Bft) 0 min 2,9 km/h (1 Bft)
05.11.2009 06:42 14,0 C 8,4 C 0,0 UV-I 0,0 C 61 % 87 % 0 % 989,2 hPa 0,1 l/m 3,6 km/h (1 Bft) 0 min 4,8 km/h (1 Bft)
05.11.2009 06:44 13,8 C 8,4 C 0,0 UV-I 0,0 C 61 % 88 % 0 % 989,2 hPa 0,0 l/m 3,4 km/h (1 Bft) 0 min 4,6 km/h (1 Bft)
05.11.2009 06:46 13,8 C 8,4 C 0,0 UV-I 0,0 C 61 % 88 % 0 % 989,2 hPa 0,0 l/m 3,4 km/h (1 Bft) 0 min 4,6 km/h (1 Bft)
05.11.2009 06:48 13,8 C 8,4 C 0,0 UV-I 0,0 C 61 % 88 % 0 % 989,2 hPa 0,0 l/m 3,1 km/h (1 Bft) 0 min 2,6 km/h (1 Bft)
05.11.2009 06:50 13,8 C 8,4 C 0,0 UV-I 0,0 C 61 % 88 % 0 % 989,2 hPa 0,0 l/m 2,6 km/h (1 Bft) 0 min 3,8 km/h (1 Bft)
05.11.2009 06:52 13,8 C 8,4 C 0,0 UV-I 0,0 C 61 % 88 % 0 % 989,2 hPa 0,1 l/m 2,9 km/h (1 Bft) 0 min 5,3 km/h (1 Bft)
05.11.2009 06:54 13,8 C 8,4 C 0,0 UV-I 0,0 C 61 % 88 % 0 % 989,2 hPa 0,0 l/m 2,9 km/h (1 Bft) 0 min 6,0 km/h (2 Bft)
05.11.2009 06:56 14,0 C 8,3 C 0,0 UV-I 0,0 C 61 % 88 % 0 % 989,5 hPa 0,0 l/m 2,6 km/h (1 Bft) 0 min 3,8 km/h (1 Bft)
05.11.2009 06:58 14,0 C 8,3 C 0,0 UV-I 0,0 C 61 % 88 % 0 % 989,5 hPa 0,0 l/m 2,4 km/h (1 Bft) 0 min 2,9 km/h (1 Bft)
05.11.2009 07:00 14,0 C 8,3 C 0,0 UV-I 0,0 C 61 % 88 % 0 % 989,5 hPa 0,0 l/m 2,6 km/h (1 Bft) 0 min 3,1 km/h (1 Bft)
05.11.2009 07:02 14,0 C 8,3 C 0,0 UV-I 0,0 C 61 % 88 % 0 % 989,5 hPa 0,0 l/m 2,2 km/h (1 Bft) 0 min 2,4 km/h (1 Bft)
05.11.2009 07:04 14,0 C 8,2 C 0,0 UV-I 0,0 C 61 % 89 % 0 % 989,5 hPa 0,0 l/m 1,9 km/h (1 Bft) 0 min 3,8 km/h (1 Bft)
05.11.2009 07:06 14,0 C 8,2 C 0,0 UV-I 0,0 C 61 % 89 % 0 % 989,5 hPa 0,0 l/m 1,7 km/h (1 Bft) 0 min 3,4 km/h (1 Bft)
05.11.2009 07:08 14,0 C 8,2 C 0,0 UV-I 0,0 C 61 % 89 % 0 % 989,5 hPa 0,0 l/m 1,9 km/h (1 Bft) 0 min 5,3 km/h (1 Bft)
05.11.2009 07:10 14,0 C 8,2 C 0,0 UV-I 0,0 C 61 % 89 % 0 % 989,5 hPa 0,0 l/m 2,2 km/h (1 Bft) 0 min 5,5 km/h (1 Bft)
05.11.2009 07:12 14,0 C 8,3 C 0,0 UV-I 0,0 C 61 % 89 % 0 % 989,5 hPa 0,0 l/m 2,6 km/h (1 Bft) 0 min 3,8 km/h (1 Bft)
05.11.2009 07:14 14,0 C 8,3 C 0,0 UV-I 0,0 C 61 % 89 % 0 % 989,5 hPa 0,0 l/m 2,9 km/h (1 Bft) 0 min 8,7 km/h (2 Bft)
05.11.2009 07:16 14,0 C 8,3 C 0,0 UV-I 0,0 C 61 % 89 % 0 % 989,6 hPa 0,0 l/m 3,4 km/h (1 Bft) 0 min 4,3 km/h (1 Bft)
05.11.2009 07:18 14,0 C 8,2 C 0,0 UV-I 0,0 C 61 % 89 % 0 % 989,6 hPa 0,0 l/m 3,4 km/h (1 Bft) 0 min 3,1 km/h (1 Bft)
05.11.2009 07:20 14,0 C 8,3 C 0,0 UV-I 0,0 C 61 % 89 % 0 % 989,6 hPa 0,0 l/m 3,6 km/h (1 Bft) 0 min 14,0 km/h (3 Bft)
05.11.2009 07:22 14,0 C 8,2 C 0,0 UV-I 0,0 C 61 % 88 % 0 % 989,6 hPa 0,0 l/m 4,3 km/h (1 Bft) 0 min 8,9 km/h (2 Bft)
05.11.2009 07:24 14,0 C 8,3 C 0,0 UV-I 0,0 C 61 % 89 % 0 % 989,6 hPa 0,0 l/m 4,8 km/h (1 Bft) 0 min 7,0 km/h (2 Bft)
05.11.2009 07:26 14,0 C 8,3 C 0,0 UV-I 0,0 C 61 % 88 % 0 % 989,6 hPa 0,0 l/m 4,8 km/h (1 Bft) 0 min 3,4 km/h (1 Bft)
05.11.2009 07:28 14,0 C 8,3 C 0,0 UV-I 0,0 C 61 % 88 % 0 % 989,6 hPa 0,0 l/m 4,8 km/h (1 Bft) 0 min 12,8 km/h (3 Bft)
05.11.2009 07:30 14,0 C 8,3 C 0,0 UV-I 0,0 C 61 % 88 % 0 % 989,6 hPa 0,0 l/m 5,3 km/h (1 Bft) 0 min 4,1 km/h (1 Bft)
05.11.2009 07:32 14,0 C 8,3 C 0,0 UV-I 0,0 C 61 % 88 % 0 % 989,6 hPa 0,0 l/m 5,3 km/h (1 Bft) 0 min 16,8 km/h (3 Bft)
05.11.2009 07:34 14,0 C 8,3 C 0,0 UV-I 0,0 C 61 % 88 % 0 % 989,6 hPa 0,0 l/m 5,1 km/h (1 Bft) 0 min 2,6 km/h (1 Bft)
05.11.2009 07:36 14,0 C 8,3 C 0,0 UV-I 0,0 C 61 % 88 % 0 % 989,5 hPa 0,0 l/m 4,8 km/h (1 Bft) 0 min 2,4 km/h (1 Bft)
05.11.2009 07:38 14,0 C 8,3 C 0,0 UV-I 0,0 C 61 % 88 % 0 % 989,5 hPa 0,0 l/m 5,3 km/h (1 Bft) 0 min 6,7 km/h (2 Bft)
05.11.2009 07:40 14,0 C 8,3 C 0,0 UV-I 0,0 C 61 % 88 % 0 % 989,5 hPa 0,0 l/m 5,3 km/h (1 Bft) 0 min 7,0 km/h (2 Bft)
05.11.2009 07:42 14,0 C 8,3 C 0,0 UV-I 0,0 C 61 % 88 % 0 % 989,5 hPa 0,0 l/m 5,1 km/h (1 Bft) 0 min 2,6 km/h (1 Bft)
05.11.2009 07:44 14,0 C 8,3 C 0,0 UV-I 0,0 C 61 % 88 % 0 % 989,5 hPa 0,0 l/m 4,1 km/h (1 Bft) 0 min 0,0 km/h (0 Bft)
05.11.2009 07:46 13,8 C 8,3 C 0,0 UV-I 0,0 C 61 % 88 % 0 % 989,5 hPa 0,0 l/m 4,3 km/h (1 Bft) 0 min 8,4 km/h (2 Bft)
05.11.2009 07:48 13,8 C 8,3 C 0,0 UV-I 0,0 C 61 % 88 % 0 % 989,5 hPa 0,0 l/m 4,8 km/h (1 Bft) 0 min 8,7 km/h (2 Bft)
05.11.2009 07:50 13,8 C 8,3 C 0,0 UV-I 0,0 C 61 % 88 % 0 % 989,5 hPa 0,0 l/m 5,3 km/h (1 Bft) 0 min 11,8 km/h (2 Bft)
05.11.2009 07:52 13,8 C 8,3 C 0,0 UV-I 0,0 C 61 % 88 % 0 % 989,5 hPa 0,0 l/m 5,3 km/h (1 Bft) 0 min 6,3 km/h (2 Bft)
05.11.2009 07:54 13,8 C 8,3 C 0,0 UV-I 0,0 C 61 % 88 % 0 % 989,5 hPa 0,0 l/m 6,0 km/h (2 Bft) 0 min 5,3 km/h (1 Bft)
05.11.2009 07:56 13,9 C 8,3 C 0,0 UV-I 0,0 C 61 % 88 % 0 % 990,0 hPa 0,0 l/m 6,3 km/h (2 Bft) 0 min 2,6 km/h (1 Bft)
05.11.2009 07:58 13,9 C 8,3 C 0,0 UV-I 0,0 C 61 % 88 % 0 % 990,0 hPa 0,0 l/m 5,5 km/h (1 Bft) 0 min 5,5 km/h (1 Bft)
05.11.2009 08:00 13,9 C 8,3 C 0,0 UV-I 0,0 C 61 % 88 % 0 % 990,0 hPa 0,0 l/m 5,1 km/h (1 Bft) 0 min 4,1 km/h (1 Bft)
05.11.2009 08:02 13,9 C 8,3 C 0,0 UV-I 0,0 C 61 % 88 % 0 % 990,0 hPa 0,0 l/m 4,3 km/h (1 Bft) 0 min 6,0 km/h (2 Bft)
05.11.2009 08:04 13,9 C 8,4 C 0,0 UV-I 0,0 C 61 % 87 % 0 % 990,0 hPa 0,0 l/m 3,8 km/h (1 Bft) 0 min 4,1 km/h (1 Bft)
05.11.2009 08:06 13,9 C 8,4 C 0,0 UV-I 0,0 C 61 % 87 % 0 % 990,0 hPa 0,0 l/m 3,6 km/h (1 Bft) 0 min 7,0 km/h (2 Bft)
05.11.2009 08:08 13,9 C 8,4 C 0,0 UV-I 0,0 C 61 % 87 % 0 % 990,0 hPa 0,0 l/m 4,6 km/h (1 Bft) 0 min 22,9 km/h (4 Bft)
05.11.2009 08:10 13,9 C 8,4 C 0,0 UV-I 0,0 C 61 % 87 % 0 % 990,0 hPa 0,0 l/m 5,3 km/h (1 Bft) 0 min 8,7 km/h (2 Bft)
05.11.2009 08:12 13,9 C 8,4 C 0,0 UV-I 0,0 C 61 % 87 % 0 % 990,0 hPa 0,0 l/m 5,8 km/h (2 Bft) 0 min 3,6 km/h (1 Bft)
05.11.2009 08:14 13,8 C 8,4 C 0,0 UV-I 0,0 C 61 % 87 % 0 % 990,0 hPa 0,0 l/m 6,0 km/h (2 Bft) 0 min 11,8 km/h (2 Bft)
05.11.2009 08:16 13,8 C 8,4 C 0,0 UV-I 0,0 C 61 % 87 % 0 % 990,0 hPa 0,0 l/m 6,0 km/h (2 Bft) 0 min 6,7 km/h (2 Bft)
05.11.2009 08:18 13,9 C 8,5 C 0,0 UV-I 0,0 C 61 % 87 % 0 % 990,0 hPa 0,0 l/m 6,3 km/h (2 Bft) 0 min 8,7 km/h (2 Bft)
05.11.2009 08:20 13,8 C 8,5 C 0,0 UV-I 0,0 C 61 % 87 % 0 % 990,0 hPa 0,0 l/m 5,8 km/h (2 Bft) 0 min 13,0 km/h (3 Bft)
05.11.2009 08:22 13,8 C 8,5 C 0,0 UV-I 0,0 C 61 % 87 % 0 % 990,0 hPa 0,0 l/m 5,1 km/h (1 Bft) 0 min 5,1 km/h (1 Bft)
05.11.2009 08:24 13,8 C 8,5 C 0,0 UV-I 0,0 C 61 % 87 % 0 % 990,0 hPa 0,0 l/m 5,5 km/h (1 Bft) 0 min 7,2 km/h (2 Bft)
05.11.2009 08:26 13,8 C 8,7 C 0,0 UV-I 0,0 C 61 % 87 % 0 % 990,0 hPa 0,0 l/m 5,5 km/h (1 Bft) 0 min 8,9 km/h (2 Bft)
05.11.2009 08:28 13,8 C 8,7 C 0,0 UV-I 0,0 C 61 % 87 % 0 % 990,0 hPa 0,0 l/m 6,3 km/h (2 Bft) 0 min 16,4 km/h (3 Bft)
05.11.2009 08:30 13,8 C 8,7 C 0,0 UV-I 0,0 C 61 % 87 % 0 % 990,0 hPa 0,0 l/m 6,5 km/h (2 Bft) 0 min 12,3 km/h (3 Bft)
05.11.2009 08:32 13,8 C 8,7 C 0,0 UV-I 0,0 C 61 % 87 % 0 % 990,0 hPa 0,0 l/m 6,7 km/h (2 Bft) 0 min 9,1 km/h (2 Bft)
05.11.2009 08:34 13,8 C 8,7 C 0,0 UV-I 0,0 C 61 % 87 % 0 % 990,0 hPa 0,0 l/m 7,0 km/h (2 Bft) 0 min 6,7 km/h (2 Bft)
05.11.2009 08:36 13,8 C 8,6 C 0,0 UV-I 0,0 C 61 % 87 % 0 % 990,3 hPa 0,0 l/m 6,7 km/h (2 Bft) 0 min 4,1 km/h (1 Bft)
05.11.2009 08:38 14,0 C 8,6 C 0,0 UV-I 0,1 C 61 % 87 % 3 % 990,3 hPa 0,0 l/m 6,3 km/h (2 Bft) 0 min 5,5 km/h (1 Bft)
05.11.2009 08:40 13,8 C 8,7 C 0,0 UV-I 0,1 C 61 % 87 % 3 % 990,3 hPa 0,0 l/m 5,5 km/h (1 Bft) 0 min 13,7 km/h (3 Bft)
05.11.2009 08:42 14,0 C 8,7 C 0,0 UV-I 0,1 C 61 % 86 % 3 % 990,3 hPa 0,0 l/m 5,5 km/h (1 Bft) 0 min 5,3 km/h (1 Bft)
05.11.2009 08:44 14,0 C 8,7 C 0,0 UV-I 0,0 C 61 % 86 % 0 % 990,3 hPa 0,0 l/m 6,0 km/h (2 Bft) 0 min 14,7 km/h (3 Bft)
05.11.2009 08:46 13,8 C 8,8 C 0,0 UV-I 0,0 C 61 % 86 % 0 % 990,3 hPa 0,0 l/m 6,3 km/h (2 Bft) 0 min 11,1 km/h (2 Bft)
05.11.2009 08:48 14,0 C 8,9 C 0,0 UV-I 0,0 C 61 % 86 % 0 % 990,3 hPa 0,0 l/m 6,5 km/h (2 Bft) 0 min 11,5 km/h (2 Bft)
05.11.2009 08:52 14,0 C 8,8 C 0,0 UV-I 0,0 C 61 % 86 % 0 % 990,3 hPa 0,0 l/m 6,0 km/h (2 Bft) 0 min 5,1 km/h (1 Bft)
05.11.2009 08:54 14,0 C 8,8 C 0,0 UV-I 0,1 C 61 % 86 % 3 % 990,3 hPa 0,0 l/m 5,1 km/h (1 Bft) 0 min 4,8 km/h (1 Bft)
05.11.2009 08:56 14,0 C 8,8 C 0,0 UV-I 0,1 C 61 % 86 % 3 % 990,4 hPa 0,0 l/m 5,3 km/h (1 Bft) 0 min 8,2 km/h (2 Bft)
05.11.2009 08:58 14,0 C 8,9 C 0,0 UV-I 0,0 C 61 % 86 % 0 % 990,4 hPa 0,0 l/m 6,0 km/h (2 Bft) 0 min 15,9 km/h (3 Bft)
05.11.2009 09:00 14,0 C 8,9 C 0,0 UV-I 0,0 C 61 % 86 % 0 % 990,4 hPa 0,0 l/m 6,0 km/h (2 Bft) 0 min 12,8 km/h (3 Bft)
05.11.2009 09:02 14,0 C 8,9 C 0,0 UV-I 0,0 C 61 % 86 % 0 % 990,4 hPa 0,0 l/m 6,3 km/h (2 Bft) 0 min 12,5 km/h (3 Bft)
05.11.2009 09:04 14,0 C 9,1 C 0,0 UV-I 0,0 C 61 % 85 % 0 % 990,4 hPa 0,0 l/m 7,5 km/h (2 Bft) 0 min 9,1 km/h (2 Bft)
05.11.2009 09:06 14,0 C 9,0 C 0,1 UV-I 0,0 C 60 % 85 % 0 % 990,4 hPa 0,0 l/m 7,9 km/h (2 Bft) 0 min 10,6 km/h (2 Bft)
05.11.2009 09:08 14,0 C 9,1 C 0,1 UV-I 0,0 C 61 % 85 % 0 % 990,4 hPa 0,0 l/m 7,2 km/h (2 Bft) 0 min 3,8 km/h (1 Bft)
05.11.2009 09:10 14,0 C 9,1 C 0,2 UV-I 0,2 C 61 % 85 % 6 % 990,4 hPa 0,0 l/m 6,0 km/h (2 Bft) 0 min 27,2 km/h (4 Bft)
05.11.2009 09:12 14,0 C 9,0 C 0,2 UV-I 0,3 C 60 % 85 % 9 % 990,4 hPa 0,0 l/m 6,5 km/h (2 Bft) 0 min 3,4 km/h (1 Bft)
05.11.2009 09:14 13,9 C 9,0 C 0,2 UV-I 0,6 C 61 % 85 % 17 % 990,4 hPa 0,0 l/m 6,3 km/h (2 Bft) 0 min 7,5 km/h (2 Bft)
05.11.2009 09:16 13,9 C 9,1 C 0,2 UV-I 0,5 C 61 % 85 % 14 % 990,6 hPa 0,0 l/m 6,3 km/h (2 Bft) 0 min 14,7 km/h (3 Bft)
05.11.2009 09:18 13,9 C 9,1 C 0,2 UV-I 0,3 C 61 % 85 % 9 % 990,6 hPa 0,0 l/m 6,7 km/h (2 Bft) 0 min 8,2 km/h (2 Bft)
05.11.2009 09:20 13,9 C 9,1 C 0,2 UV-I 0,2 C 60 % 85 % 6 % 990,6 hPa 0,0 l/m 7,5 km/h (2 Bft) 0 min 16,6 km/h (3 Bft)
05.11.2009 09:22 13,9 C 9,2 C 0,2 UV-I 0,0 C 61 % 85 % 0 % 990,6 hPa 0,0 l/m 8,2 km/h (2 Bft) 0 min 13,2 km/h (3 Bft)
05.11.2009 09:24 13,9 C 9,2 C 0,2 UV-I 0,0 C 60 % 85 % 0 % 990,6 hPa 0,0 l/m 8,2 km/h (2 Bft) 0 min 7,5 km/h (2 Bft)
05.11.2009 09:26 14,1 C 9,2 C 0,2 UV-I 0,0 C 60 % 85 % 0 % 990,6 hPa 0,0 l/m 7,9 km/h (2 Bft) 0 min 12,3 km/h (3 Bft)
05.11.2009 09:28 14,1 C 9,2 C 0,2 UV-I 0,0 C 60 % 85 % 0 % 990,6 hPa 0,0 l/m 7,9 km/h (2 Bft) 0 min 20,0 km/h (4 Bft)
05.11.2009 09:30 14,1 C 9,3 C 0,2 UV-I 0,0 C 60 % 85 % 0 % 990,6 hPa 0,0 l/m 7,2 km/h (2 Bft) 0 min 8,4 km/h (2 Bft)
05.11.2009 09:32 14,1 C 9,3 C 0,2 UV-I 0,1 C 60 % 85 % 3 % 990,6 hPa 0,0 l/m 6,7 km/h (2 Bft) 0 min 11,5 km/h (2 Bft)
05.11.2009 09:34 14,1 C 9,3 C 0,2 UV-I 0,3 C 60 % 84 % 9 % 990,6 hPa 0,0 l/m 6,3 km/h (2 Bft) 0 min 12,3 km/h (3 Bft)
05.11.2009 09:36 14,1 C 9,4 C 0,1 UV-I 0,2 C 60 % 84 % 6 % 990,3 hPa 0,0 l/m 6,0 km/h (2 Bft) 0 min 14,0 km/h (3 Bft)
05.11.2009 09:38 14,1 C 9,5 C 0,1 UV-I 0,0 C 60 % 83 % 0 % 990,3 hPa 0,0 l/m 6,7 km/h (2 Bft) 0 min 9,6 km/h (2 Bft)
05.11.2009 09:40 14,1 C 9,5 C 0,0 UV-I 0,0 C 60 % 83 % 0 % 990,3 hPa 0,0 l/m 6,5 km/h (2 Bft) 0 min 8,2 km/h (2 Bft)
05.11.2009 09:42 14,1 C 9,4 C 0,0 UV-I 0,0 C 60 % 83 % 0 % 990,3 hPa 0,0 l/m 6,7 km/h (2 Bft) 0 min 5,8 km/h (2 Bft)
05.11.2009 09:44 14,1 C 9,5 C 0,0 UV-I 0,0 C 60 % 83 % 0 % 990,3 hPa 0,0 l/m 6,5 km/h (2 Bft) 0 min 3,4 km/h (1 Bft)
05.11.2009 09:46 14,1 C 9,5 C 0,0 UV-I 0,0 C 60 % 83 % 0 % 990,3 hPa 0,0 l/m 7,0 km/h (2 Bft) 0 min 14,7 km/h (3 Bft)
05.11.2009 09:48 14,1 C 9,5 C 0,0 UV-I 0,0 C 60 % 83 % 0 % 990,3 hPa 0,0 l/m 7,7 km/h (2 Bft) 0 min 7,7 km/h (2 Bft)
05.11.2009 09:50 14,1 C 9,4 C 0,0 UV-I 0,0 C 60 % 83 % 0 % 990,3 hPa 0,0 l/m 7,5 km/h (2 Bft) 0 min 5,5 km/h (1 Bft)
05.11.2009 09:52 14,1 C 9,4 C 0,0 UV-I 0,0 C 60 % 83 % 0 % 990,3 hPa 0,0 l/m 7,0 km/h (2 Bft) 0 min 6,0 km/h (2 Bft)
05.11.2009 09:54 14,1 C 9,5 C 0,0 UV-I 0,0 C 60 % 83 % 0 % 990,3 hPa 0,0 l/m 7,0 km/h (2 Bft) 0 min 14,2 km/h (3 Bft)
05.11.2009 09:56 14,1 C 9,5 C 0,1 UV-I 0,0 C 60 % 83 % 0 % 990,6 hPa 0,0 l/m 6,7 km/h (2 Bft) 0 min 15,6 km/h (3 Bft)
05.11.2009 09:58 14,1 C 9,5 C 0,1 UV-I 0,1 C 60 % 82 % 3 % 990,6 hPa 0,0 l/m 6,3 km/h (2 Bft) 0 min 11,3 km/h (2 Bft)
05.11.2009 10:00 14,1 C 9,5 C 0,3 UV-I 0,1 C 60 % 82 % 3 % 990,6 hPa 0,0 l/m 6,3 km/h (2 Bft) 0 min 6,7 km/h (2 Bft)
05.11.2009 10:02 14,1 C 9,6 C 0,3 UV-I 0,0 C 60 % 82 % 0 % 990,6 hPa 0,0 l/m 6,5 km/h (2 Bft) 0 min 9,4 km/h (2 Bft)
05.11.2009 10:04 14,1 C 9,6 C 0,3 UV-I 0,0 C 60 % 82 % 0 % 990,6 hPa 0,0 l/m 7,0 km/h (2 Bft) 0 min 6,3 km/h (2 Bft)
05.11.2009 10:06 14,1 C 9,6 C 0,1 UV-I 0,0 C 60 % 82 % 0 % 990,6 hPa 0,0 l/m 7,2 km/h (2 Bft) 0 min 8,4 km/h (2 Bft)
05.11.2009 10:08 14,1 C 9,7 C 0,1 UV-I 0,0 C 60 % 82 % 0 % 990,6 hPa 0,0 l/m 7,0 km/h (2 Bft) 0 min 4,8 km/h (1 Bft)
05.11.2009 10:10 14,1 C 9,6 C 0,0 UV-I 0,1 C 60 % 82 % 3 % 990,6 hPa 0,0 l/m 6,5 km/h (2 Bft) 0 min 8,4 km/h (2 Bft)
05.11.2009 10:12 14,2 C 9,6 C 0,0 UV-I 0,1 C 60 % 82 % 3 % 990,6 hPa 0,0 l/m 6,5 km/h (2 Bft) 0 min 10,8 km/h (2 Bft)
05.11.2009 10:14 14,2 C 9,6 C 0,0 UV-I 0,1 C 59 % 82 % 3 % 990,6 hPa 0,0 l/m 6,5 km/h (2 Bft) 0 min 4,3 km/h (1 Bft)
05.11.2009 10:16 14,2 C 9,7 C 0,1 UV-I 0,0 C 59 % 82 % 0 % 990,7 hPa 0,0 l/m 6,3 km/h (2 Bft) 0 min 7,2 km/h (2 Bft)
05.11.2009 10:18 14,2 C 9,7 C 0,1 UV-I 0,0 C 60 % 82 % 0 % 990,7 hPa 0,0 l/m 6,0 km/h (2 Bft) 0 min 11,5 km/h (2 Bft)
05.11.2009 10:20 14,2 C 9,7 C 0,2 UV-I 0,0 C 59 % 82 % 0 % 990,7 hPa 0,0 l/m 7,0 km/h (2 Bft) 0 min 14,4 km/h (3 Bft)
05.11.2009 10:22 14,2 C 9,7 C 0,2 UV-I 0,0 C 59 % 82 % 0 % 990,7 hPa 0,0 l/m 6,7 km/h (2 Bft) 0 min 10,6 km/h (2 Bft)
05.11.2009 10:24 14,2 C 9,7 C 0,2 UV-I 0,0 C 59 % 82 % 0 % 990,7 hPa 0,0 l/m 6,5 km/h (2 Bft) 0 min 11,1 km/h (2 Bft)
05.11.2009 10:26 14,2 C 9,7 C 0,2 UV-I 0,0 C 59 % 82 % 0 % 990,7 hPa 0,0 l/m 7,0 km/h (2 Bft) 0 min 7,9 km/h (2 Bft)
05.11.2009 10:28 14,2 C 9,8 C 0,2 UV-I 0,0 C 59 % 81 % 0 % 990,7 hPa 0,0 l/m 6,7 km/h (2 Bft) 0 min 10,8 km/h (2 Bft)
05.11.2009 10:30 14,2 C 9,8 C 0,4 UV-I 0,0 C 59 % 81 % 0 % 990,7 hPa 0,0 l/m 7,0 km/h (2 Bft) 0 min 15,9 km/h (3 Bft)
05.11.2009 10:32 14,2 C 9,9 C 0,4 UV-I 0,1 C 59 % 81 % 3 % 990,7 hPa 0,0 l/m 6,3 km/h (2 Bft) 0 min 8,7 km/h (2 Bft)
05.11.2009 10:34 14,2 C 9,9 C 0,4 UV-I 0,0 C 59 % 82 % 0 % 990,7 hPa 0,0 l/m 7,0 km/h (2 Bft) 0 min 7,7 km/h (2 Bft)
05.11.2009 10:36 14,2 C 9,9 C 0,9 UV-I 0,3 C 59 % 81 % 9 % 991,1 hPa 0,0 l/m 6,7 km/h (2 Bft) 0 min 25,0 km/h (4 Bft)
05.11.2009 10:38 14,1 C 10,0 C 0,9 UV-I 0,2 C 59 % 81 % 6 % 991,1 hPa 0,0 l/m 7,2 km/h (2 Bft) 0 min 7,5 km/h (2 Bft)
05.11.2009 10:40 14,1 C 10,0 C 1,1 UV-I 0,5 C 59 % 81 % 14 % 991,1 hPa 0,0 l/m 7,2 km/h (2 Bft) 0 min 9,6 km/h (2 Bft)
05.11.2009 10:42 14,1 C 10,0 C 1,1 UV-I 0,6 C 59 % 81 % 17 % 991,1 hPa 0,0 l/m 7,0 km/h (2 Bft) 0 min 11,3 km/h (2 Bft)
05.11.2009 10:44 14,1 C 10,1 C 1,1 UV-I 0,5 C 59 % 81 % 14 % 991,1 hPa 0,0 l/m 7,5 km/h (2 Bft) 0 min 10,8 km/h (2 Bft)
05.11.2009 10:46 14,3 C 10,0 C 0,6 UV-I 0,3 C 59 % 80 % 9 % 991,1 hPa 0,0 l/m 8,2 km/h (2 Bft) 0 min 3,8 km/h (1 Bft)
05.11.2009 10:50 14,3 C 10,0 C 0,3 UV-I 0,0 C 59 % 80 % 0 % 991,1 hPa 0,0 l/m 8,7 km/h (2 Bft) 0 min 14,7 km/h (3 Bft)
05.11.2009 10:52 14,3 C 10,1 C 0,3 UV-I 0,0 C 59 % 81 % 0 % 991,1 hPa 0,0 l/m 8,7 km/h (2 Bft) 0 min 10,3 km/h (2 Bft)
05.11.2009 10:54 14,1 C 10,0 C 0,3 UV-I 0,0 C 59 % 81 % 0 % 991,1 hPa 0,0 l/m 7,9 km/h (2 Bft) 0 min 6,0 km/h (2 Bft)
05.11.2009 10:56 14,3 C 10,0 C 0,1 UV-I 0,0 C 59 % 82 % 0 % 991,2 hPa 0,0 l/m 7,7 km/h (2 Bft) 0 min 7,7 km/h (2 Bft)
05.11.2009 10:58 14,3 C 10,1 C 0,1 UV-I 0,0 C 59 % 82 % 0 % 991,2 hPa 0,0 l/m 7,5 km/h (2 Bft) 0 min 7,0 km/h (2 Bft)
05.11.2009 11:00 14,3 C 9,9 C 0,1 UV-I 0,0 C 60 % 82 % 0 % 991,2 hPa 0,1 l/m 6,3 km/h (2 Bft) 0 min 5,8 km/h (2 Bft)
05.11.2009 11:02 14,3 C 9,9 C 0,1 UV-I 0,0 C 60 % 82 % 0 % 991,2 hPa 0,1 l/m 5,5 km/h (1 Bft) 0 min 5,5 km/h (1 Bft)
05.11.2009 11:04 14,3 C 9,9 C 0,1 UV-I 0,0 C 60 % 83 % 0 % 991,2 hPa 0,0 l/m 5,5 km/h (1 Bft) 0 min 11,5 km/h (2 Bft)
05.11.2009 11:06 14,3 C 9,9 C 0,3 UV-I 0,0 C 60 % 83 % 0 % 991,2 hPa 0,0 l/m 5,5 km/h (1 Bft) 0 min 12,8 km/h (3 Bft)
05.11.2009 11:08 14,1 C 9,9 C 0,3 UV-I 0,0 C 60 % 83 % 0 % 991,2 hPa 0,0 l/m 5,3 km/h (1 Bft) 0 min 13,0 km/h (3 Bft)
05.11.2009 11:10 14,1 C 9,9 C 0,4 UV-I 0,0 C 60 % 83 % 0 % 991,2 hPa 0,0 l/m 5,5 km/h (1 Bft) 0 min 5,8 km/h (2 Bft)
05.11.2009 11:12 14,3 C 9,9 C 0,4 UV-I 0,0 C 60 % 83 % 0 % 991,2 hPa 0,0 l/m 6,3 km/h (2 Bft) 0 min 12,5 km/h (3 Bft)
05.11.2009 11:14 14,3 C 9,9 C 0,4 UV-I 0,0 C 60 % 83 % 0 % 991,2 hPa 0,0 l/m 6,5 km/h (2 Bft) 0 min 10,8 km/h (2 Bft)
05.11.2009 11:16 14,3 C 9,8 C 0,5 UV-I 0,0 C 60 % 83 % 0 % 991,5 hPa 0,0 l/m 6,5 km/h (2 Bft) 0 min 10,3 km/h (2 Bft)
05.11.2009 11:18 14,3 C 9,7 C 0,5 UV-I 0,0 C 60 % 83 % 0 % 991,5 hPa 0,0 l/m 6,7 km/h (2 Bft) 0 min 3,8 km/h (1 Bft)
05.11.2009 11:20 14,3 C 9,8 C 0,5 UV-I 0,0 C 60 % 83 % 0 % 991,5 hPa 0,0 l/m 7,2 km/h (2 Bft) 0 min 17,3 km/h (3 Bft)
05.11.2009 11:22 14,3 C 9,7 C 0,5 UV-I 0,0 C 60 % 83 % 0 % 991,5 hPa 0,0 l/m 7,0 km/h (2 Bft) 0 min 8,2 km/h (2 Bft)
05.11.2009 11:24 14,3 C 9,7 C 0,5 UV-I 0,0 C 60 % 83 % 0 % 991,5 hPa 0,0 l/m 7,2 km/h (2 Bft) 0 min 3,4 km/h (1 Bft)
05.11.2009 11:26 14,3 C 9,7 C 0,8 UV-I 0,0 C 60 % 83 % 0 % 991,5 hPa 0,0 l/m 7,5 km/h (2 Bft) 0 min 8,9 km/h (2 Bft)
05.11.2009 11:28 14,3 C 9,9 C 0,8 UV-I 0,0 C 60 % 83 % 0 % 991,5 hPa 0,0 l/m 7,0 km/h (2 Bft) 0 min 7,2 km/h (2 Bft)
05.11.2009 11:30 14,3 C 9,9 C 0,7 UV-I 0,0 C 60 % 83 % 0 % 991,5 hPa 0,0 l/m 7,5 km/h (2 Bft) 0 min 29,6 km/h (5 Bft)
05.11.2009 11:32 14,3 C 9,9 C 0,7 UV-I 0,0 C 60 % 83 % 0 % 991,5 hPa 0,0 l/m 7,0 km/h (2 Bft) 0 min 4,6 km/h (1 Bft)
05.11.2009 11:34 14,3 C 9,9 C 0,7 UV-I 0,0 C 60 % 83 % 0 % 991,5 hPa 0,0 l/m 6,0 km/h (2 Bft) 0 min 4,8 km/h (1 Bft)
05.11.2009 11:36 14,3 C 9,9 C 0,4 UV-I 0,0 C 60 % 83 % 0 % 991,3 hPa 0,0 l/m 6,3 km/h (2 Bft) 0 min 7,5 km/h (2 Bft)
05.11.2009 11:38 14,3 C 9,9 C 0,4 UV-I 0,0 C 60 % 83 % 0 % 991,3 hPa 0,0 l/m 6,5 km/h (2 Bft) 0 min 6,0 km/h (2 Bft)
05.11.2009 11:40 14,3 C 9,9 C 0,1 UV-I 0,0 C 60 % 83 % 0 % 991,3 hPa 0,0 l/m 6,0 km/h (2 Bft) 0 min 14,4 km/h (3 Bft)
05.11.2009 11:42 14,2 C 9,8 C 0,1 UV-I 0,0 C 60 % 82 % 0 % 991,3 hPa 0,0 l/m 6,3 km/h (2 Bft) 0 min 6,5 km/h (2 Bft)
05.11.2009 11:44 14,2 C 9,8 C 0,1 UV-I 0,0 C 60 % 83 % 0 % 991,3 hPa 0,0 l/m 6,0 km/h (2 Bft) 0 min 6,0 km/h (2 Bft)
05.11.2009 11:46 14,2 C 9,9 C 0,2 UV-I 0,0 C 60 % 83 % 0 % 991,3 hPa 0,0 l/m 6,3 km/h (2 Bft) 0 min 17,8 km/h (3 Bft)
05.11.2009 11:48 14,2 C 9,9 C 0,2 UV-I 0,0 C 60 % 83 % 0 % 991,3 hPa 0,0 l/m 6,7 km/h (2 Bft) 0 min 13,7 km/h (3 Bft)
05.11.2009 11:50 14,2 C 9,8 C 0,2 UV-I 0,0 C 60 % 82 % 0 % 991,3 hPa 0,0 l/m 7,0 km/h (2 Bft) 0 min 36,6 km/h (5 Bft)
05.11.2009 11:52 14,2 C 9,8 C 0,2 UV-I 0,0 C 60 % 82 % 0 % 991,3 hPa 0,0 l/m 7,5 km/h (2 Bft) 0 min 10,6 km/h (2 Bft)
05.11.2009 11:54 14,2 C 9,9 C 0,2 UV-I 0,0 C 60 % 82 % 0 % 991,3 hPa 0,0 l/m 8,4 km/h (2 Bft) 0 min 16,8 km/h (3 Bft)
05.11.2009 11:56 14,2 C 9,9 C 0,0 UV-I 0,0 C 60 % 82 % 0 % 991,7 hPa 0,0 l/m 8,7 km/h (2 Bft) 0 min 6,7 km/h (2 Bft)
05.11.2009 11:58 14,3 C 9,9 C 0,0 UV-I 0,0 C 60 % 83 % 0 % 991,7 hPa 0,0 l/m 8,4 km/h (2 Bft) 0 min 9,6 km/h (2 Bft)
05.11.2009 12:00 14,3 C 9,8 C 0,0 UV-I 0,0 C 60 % 83 % 0 % 991,7 hPa 0,0 l/m 7,0 km/h (2 Bft) 0 min 6,5 km/h (2 Bft)
05.11.2009 12:02 14,3 C 9,7 C 0,0 UV-I 0,0 C 60 % 83 % 0 % 991,7 hPa 0,0 l/m 7,2 km/h (2 Bft) 0 min 18,0 km/h (3 Bft)
05.11.2009 12:04 14,3 C 9,7 C 0,0 UV-I 0,0 C 60 % 83 % 0 % 991,7 hPa 0,0 l/m 7,0 km/h (2 Bft) 0 min 9,9 km/h (2 Bft)
05.11.2009 12:06 14,3 C 9,7 C 0,0 UV-I 0,0 C 60 % 83 % 0 % 991,7 hPa 0,0 l/m 7,0 km/h (2 Bft) 0 min 9,9 km/h (2 Bft)
05.11.2009 12:08 14,3 C 9,8 C 0,0 UV-I 0,0 C 60 % 82 % 0 % 991,7 hPa 0,0 l/m 6,7 km/h (2 Bft) 0 min 21,9 km/h (4 Bft)
05.11.2009 12:10 14,3 C 9,8 C 0,0 UV-I 0,0 C 60 % 82 % 0 % 991,7 hPa 0,0 l/m 7,9 km/h (2 Bft) 0 min 15,9 km/h (3 Bft)
05.11.2009 12:12 14,3 C 9,7 C 0,0 UV-I 0,0 C 60 % 83 % 0 % 991,7 hPa 0,1 l/m 8,4 km/h (2 Bft) 0 min 8,2 km/h (2 Bft)
05.11.2009 12:14 14,1 C 9,7 C 0,0 UV-I 0,0 C 60 % 84 % 0 % 991,7 hPa 0,0 l/m 7,9 km/h (2 Bft) 0 min 7,2 km/h (2 Bft)
05.11.2009 12:16 14,1 C 9,7 C 0,3 UV-I 0,0 C 60 % 84 % 0 % 991,6 hPa 0,2 l/m 8,4 km/h (2 Bft) 0 min 26,2 km/h (4 Bft)
05.11.2009 12:20 14,3 C 9,7 C 0,1 UV-I 0,0 C 61 % 85 % 0 % 991,6 hPa 0,1 l/m 7,9 km/h (2 Bft) 0 min 13,5 km/h (3 Bft)
05.11.2009 12:22 14,1 C 9,6 C 0,1 UV-I 0,0 C 61 % 85 % 0 % 991,6 hPa 0,2 l/m 7,2 km/h (2 Bft) 0 min 10,3 km/h (2 Bft)
05.11.2009 12:24 14,1 C 9,6 C 0,1 UV-I 0,0 C 61 % 85 % 0 % 991,6 hPa 0,1 l/m 7,5 km/h (2 Bft) 0 min 16,8 km/h (3 Bft)
05.11.2009 12:26 14,1 C 9,4 C 0,2 UV-I 0,0 C 61 % 86 % 0 % 991,6 hPa 0,0 l/m 7,7 km/h (2 Bft) 0 min 6,3 km/h (2 Bft)
05.11.2009 12:28 14,1 C 9,5 C 0,2 UV-I 0,0 C 61 % 86 % 0 % 991,6 hPa 0,0 l/m 6,7 km/h (2 Bft) 0 min 7,0 km/h (2 Bft)
05.11.2009 12:30 14,2 C 9,5 C 0,5 UV-I 0,0 C 61 % 86 % 0 % 991,6 hPa 0,0 l/m 7,7 km/h (2 Bft) 0 min 8,2 km/h (2 Bft)
05.11.2009 12:32 14,1 C 9,3 C 0,5 UV-I 0,0 C 62 % 86 % 0 % 991,6 hPa 0,0 l/m 7,9 km/h (2 Bft) 0 min 8,7 km/h (2 Bft)
05.11.2009 12:36 14,2 C 9,3 C 0,3 UV-I 0,0 C 62 % 86 % 0 % 991,4 hPa 0,0 l/m 7,9 km/h (2 Bft) 0 min 13,2 km/h (3 Bft)
05.11.2009 12:38 14,2 C 9,2 C 0,3 UV-I 0,0 C 62 % 87 % 0 % 991,4 hPa 0,0 l/m 7,7 km/h (2 Bft) 0 min 6,5 km/h (2 Bft)
05.11.2009 12:40 14,2 C 9,2 C 0,1 UV-I 0,0 C 62 % 87 % 0 % 991,4 hPa 0,0 l/m 6,7 km/h (2 Bft) 0 min 6,7 km/h (2 Bft)
05.11.2009 12:42 14,2 C 9,3 C 0,1 UV-I 0,0 C 62 % 87 % 0 % 991,4 hPa 0,0 l/m 6,5 km/h (2 Bft) 0 min 4,8 km/h (1 Bft)
05.11.2009 12:44 14,2 C 9,2 C 0,1 UV-I 0,0 C 62 % 87 % 0 % 991,4 hPa 0,0 l/m 5,5 km/h (1 Bft) 0 min 0,0 km/h (0 Bft)
05.11.2009 12:46 14,2 C 9,2 C 0,1 UV-I 0,0 C 62 % 87 % 0 % 991,4 hPa 0,1 l/m 5,3 km/h (1 Bft) 0 min 10,6 km/h (2 Bft)
05.11.2009 12:50 14,2 C 9,1 C 0,2 UV-I 0,0 C 62 % 87 % 0 % 991,4 hPa 0,0 l/m 5,5 km/h (1 Bft) 0 min 5,8 km/h (2 Bft)
05.11.2009 12:52 14,2 C 9,1 C 0,2 UV-I 0,0 C 62 % 87 % 0 % 991,4 hPa 0,0 l/m 5,5 km/h (1 Bft) 0 min 7,0 km/h (2 Bft)
05.11.2009 12:54 14,1 C 9,1 C 0,2 UV-I 0,0 C 62 % 86 % 0 % 991,4 hPa 0,0 l/m 5,5 km/h (1 Bft) 0 min 10,6 km/h (2 Bft)
05.11.2009 12:56 14,2 C 9,1 C 0,1 UV-I 0,0 C 62 % 86 % 0 % 991,8 hPa 0,0 l/m 6,7 km/h (2 Bft) 0 min 15,2 km/h (3 Bft)
05.11.2009 12:58 14,2 C 9,1 C 0,1 UV-I 0,0 C 62 % 86 % 0 % 991,8 hPa 0,0 l/m 6,5 km/h (2 Bft) 0 min 5,5 km/h (1 Bft)
05.11.2009 13:00 14,2 C 9,1 C 0,0 UV-I 0,0 C 62 % 86 % 0 % 991,8 hPa 0,0 l/m 6,7 km/h (2 Bft) 0 min 11,8 km/h (2 Bft)
05.11.2009 13:02 14,2 C 9,1 C 0,0 UV-I 0,0 C 62 % 87 % 0 % 991,8 hPa 0,0 l/m 6,3 km/h (2 Bft) 0 min 7,9 km/h (2 Bft)
05.11.2009 13:04 14,1 C 9,1 C 0,0 UV-I 0,0 C 62 % 87 % 0 % 991,8 hPa 0,0 l/m 6,7 km/h (2 Bft) 0 min 4,1 km/h (1 Bft)
05.11.2009 13:08 14,1 C 9,1 C 0,3 UV-I 0,0 C 62 % 87 % 0 % 991,8 hPa 0,1 l/m 6,7 km/h (2 Bft) 0 min 14,7 km/h (3 Bft)
05.11.2009 13:10 14,2 C 9,1 C 0,4 UV-I 0,0 C 62 % 87 % 0 % 991,8 hPa 0,0 l/m 7,0 km/h (2 Bft) 0 min 9,6 km/h (2 Bft)
05.11.2009 13:12 14,1 C 9,1 C 0,4 UV-I 0,0 C 62 % 87 % 0 % 991,8 hPa 0,0 l/m 6,5 km/h (2 Bft) 0 min 8,2 km/h (2 Bft)
05.11.2009 13:14 14,1 C 9,0 C 0,4 UV-I 0,0 C 62 % 87 % 0 % 991,8 hPa 0,0 l/m 6,0 km/h (2 Bft) 0 min 4,1 km/h (1 Bft)
05.11.2009 13:16 14,1 C 9,1 C 0,5 UV-I 0,0 C 62 % 87 % 0 % 992,1 hPa 0,0 l/m 6,5 km/h (2 Bft) 0 min 7,9 km/h (2 Bft)
05.11.2009 13:18 14,1 C 9,1 C 0,5 UV-I 0,0 C 62 % 87 % 0 % 992,1 hPa 0,0 l/m 7,0 km/h (2 Bft) 0 min 13,2 km/h (3 Bft)
05.11.2009 13:20 14,1 C 9,1 C 0,5 UV-I 0,0 C 62 % 87 % 0 % 992,1 hPa 0,0 l/m 7,5 km/h (2 Bft) 0 min 14,0 km/h (3 Bft)
05.11.2009 13:22 14,1 C 9,1 C 0,5 UV-I 0,0 C 62 % 87 % 0 % 992,1 hPa 0,0 l/m 7,2 km/h (2 Bft) 0 min 11,5 km/h (2 Bft)
05.11.2009 13:24 14,1 C 9,1 C 0,5 UV-I 0,0 C 62 % 87 % 0 % 992,1 hPa 0,0 l/m 7,9 km/h (2 Bft) 0 min 10,3 km/h (2 Bft)
05.11.2009 13:26 14,1 C 9,1 C 0,3 UV-I 0,0 C 62 % 87 % 0 % 992,1 hPa 0,0 l/m 8,4 km/h (2 Bft) 0 min 8,4 km/h (2 Bft)
05.11.2009 13:28 14,1 C 9,0 C 0,3 UV-I 0,0 C 62 % 87 % 0 % 992,1 hPa 0,0 l/m 7,9 km/h (2 Bft) 0 min 7,2 km/h (2 Bft)
05.11.2009 13:30 14,1 C 9,1 C 0,4 UV-I 0,0 C 62 % 87 % 0 % 992,1 hPa 0,0 l/m 7,5 km/h (2 Bft) 0 min 9,6 km/h (2 Bft)
05.11.2009 13:32 14,1 C 9,0 C 0,4 UV-I 0,0 C 62 % 88 % 0 % 992,1 hPa 0,0 l/m 6,7 km/h (2 Bft) 0 min 8,4 km/h (2 Bft)
05.11.2009 13:34 14,1 C 9,0 C 0,4 UV-I 0,0 C 62 % 88 % 0 % 992,1 hPa 0,0 l/m 6,5 km/h (2 Bft) 0 min 12,5 km/h (3 Bft)
05.11.2009 13:36 14,1 C 9,0 C 0,5 UV-I 0,0 C 62 % 88 % 0 % 991,8 hPa 0,0 l/m 6,7 km/h (2 Bft) 0 min 9,9 km/h (2 Bft)
05.11.2009 13:38 14,1 C 9,1 C 0,5 UV-I 0,0 C 62 % 87 % 0 % 991,8 hPa 0,0 l/m 7,0 km/h (2 Bft) 0 min 5,8 km/h (2 Bft)
05.11.2009 13:40 14,1 C 9,1 C 0,1 UV-I 0,0 C 62 % 87 % 0 % 991,8 hPa 0,0 l/m 7,2 km/h (2 Bft) 0 min 5,1 km/h (1 Bft)
05.11.2009 13:42 14,1 C 9,1 C 0,1 UV-I 0,0 C 62 % 87 % 0 % 991,8 hPa 0,0 l/m 7,7 km/h (2 Bft) 0 min 9,4 km/h (2 Bft)
05.11.2009 13:44 14,1 C 9,1 C 0,1 UV-I 0,0 C 62 % 87 % 0 % 991,8 hPa 0,0 l/m 7,5 km/h (2 Bft) 0 min 4,6 km/h (1 Bft)
05.11.2009 13:46 14,1 C 9,0 C 0,1 UV-I 0,0 C 62 % 87 % 0 % 991,8 hPa 0,1 l/m 6,7 km/h (2 Bft) 0 min 14,2 km/h (3 Bft)
05.11.2009 13:48 14,1 C 9,1 C 0,1 UV-I 0,0 C 62 % 87 % 0 % 991,8 hPa 0,0 l/m 6,3 km/h (2 Bft) 0 min 10,3 km/h (2 Bft)
05.11.2009 13:50 14,1 C 9,1 C 0,1 UV-I 0,0 C 62 % 88 % 0 % 991,8 hPa 0,0 l/m 6,5 km/h (2 Bft) 0 min 12,3 km/h (3 Bft)
05.11.2009 13:52 14,1 C 9,1 C 0,1 UV-I 0,0 C 62 % 87 % 0 % 991,8 hPa 0,0 l/m 6,7 km/h (2 Bft) 0 min 12,8 km/h (3 Bft)
05.11.2009 13:54 14,1 C 9,1 C 0,1 UV-I 0,0 C 62 % 87 % 0 % 991,8 hPa 0,0 l/m 6,7 km/h (2 Bft) 0 min 16,1 km/h (3 Bft)
05.11.2009 13:56 14,1 C 9,1 C 0,3 UV-I 0,0 C 62 % 87 % 0 % 992,2 hPa 0,0 l/m 7,5 km/h (2 Bft) 0 min 11,1 km/h (2 Bft)
05.11.2009 13:58 14,1 C 9,1 C 0,3 UV-I 0,0 C 62 % 87 % 0 % 992,2 hPa 0,0 l/m 7,7 km/h (2 Bft) 0 min 9,1 km/h (2 Bft)
05.11.2009 14:00 14,1 C 9,1 C 0,2 UV-I 0,0 C 62 % 87 % 0 % 992,2 hPa 0,0 l/m 7,5 km/h (2 Bft) 0 min 4,6 km/h (1 Bft)
05.11.2009 14:02 14,1 C 9,1 C 0,2 UV-I 0,0 C 62 % 87 % 0 % 992,2 hPa 0,1 l/m 6,7 km/h (2 Bft) 0 min 13,7 km/h (3 Bft)
05.11.2009 14:04 14,1 C 9,1 C 0,2 UV-I 0,0 C 63 % 87 % 0 % 992,2 hPa 0,0 l/m 7,0 km/h (2 Bft) 0 min 5,5 km/h (1 Bft)
05.11.2009 14:06 14,1 C 9,1 C 0,2 UV-I 0,0 C 63 % 87 % 0 % 992,2 hPa 0,0 l/m 7,5 km/h (2 Bft) 0 min 21,7 km/h (4 Bft)
05.11.2009 14:08 14,1 C 9,0 C 0,2 UV-I 0,0 C 63 % 88 % 0 % 992,2 hPa 0,1 l/m 7,5 km/h (2 Bft) 0 min 7,7 km/h (2 Bft)
05.11.2009 14:10 14,1 C 9,0 C 0,2 UV-I 0,0 C 63 % 88 % 0 % 992,2 hPa 0,0 l/m 7,5 km/h (2 Bft) 0 min 6,0 km/h (2 Bft)
05.11.2009 14:12 14,1 C 9,1 C 0,2 UV-I 0,0 C 63 % 88 % 0 % 992,2 hPa 0,0 l/m 8,2 km/h (2 Bft) 0 min 12,3 km/h (3 Bft)
05.11.2009 14:14 14,1 C 9,1 C 0,2 UV-I 0,0 C 63 % 88 % 0 % 992,2 hPa 0,0 l/m 8,2 km/h (2 Bft) 0 min 14,0 km/h (3 Bft)
05.11.2009 14:16 14,1 C 9,0 C 0,1 UV-I 0,0 C 63 % 88 % 0 % 992,4 hPa 0,0 l/m 8,2 km/h (2 Bft) 0 min 12,0 km/h (2 Bft)
05.11.2009 14:18 14,1 C 9,1 C 0,1 UV-I 0,0 C 63 % 88 % 0 % 992,4 hPa 0,0 l/m 7,5 km/h (2 Bft) 0 min 14,0 km/h (3 Bft)
05.11.2009 14:20 14,1 C 9,0 C 0,0 UV-I 0,0 C 63 % 88 % 0 % 992,4 hPa 0,0 l/m 7,7 km/h (2 Bft) 0 min 6,7 km/h (2 Bft)
05.11.2009 14:22 14,1 C 9,0 C 0,0 UV-I 0,0 C 63 % 88 % 0 % 992,4 hPa 0,0 l/m 7,7 km/h (2 Bft) 0 min 7,0 km/h (2 Bft)
05.11.2009 14:24 13,9 C 9,1 C 0,0 UV-I 0,0 C 63 % 88 % 0 % 992,4 hPa 0,0 l/m 7,9 km/h (2 Bft) 0 min 14,2 km/h (3 Bft)
05.11.2009 14:26 14,1 C 9,1 C 0,0 UV-I 0,0 C 63 % 88 % 0 % 992,4 hPa 0,0 l/m 6,7 km/h (2 Bft) 0 min 6,0 km/h (2 Bft)
05.11.2009 14:28 13,9 C 9,1 C 0,0 UV-I 0,0 C 63 % 88 % 0 % 992,4 hPa 0,0 l/m 7,2 km/h (2 Bft) 0 min 20,0 km/h (4 Bft)
05.11.2009 14:30 13,9 C 9,1 C 0,0 UV-I 0,0 C 63 % 88 % 0 % 992,4 hPa 0,0 l/m 7,2 km/h (2 Bft) 0 min 5,8 km/h (2 Bft)
05.11.2009 14:32 13,9 C 9,1 C 0,0 UV-I 0,0 C 63 % 88 % 0 % 992,4 hPa 0,0 l/m 6,7 km/h (2 Bft) 0 min 2,9 km/h (1 Bft)
05.11.2009 14:34 13,9 C 9,1 C 0,0 UV-I 0,0 C 63 % 88 % 0 % 992,4 hPa 0,0 l/m 6,7 km/h (2 Bft) 0 min 10,1 km/h (2 Bft)
05.11.2009 14:36 13,9 C 9,1 C 0,0 UV-I 0,0 C 63 % 88 % 0 % 992,6 hPa 0,0 l/m 7,0 km/h (2 Bft) 0 min 9,6 km/h (2 Bft)
05.11.2009 14:38 13,9 C 9,1 C 0,0 UV-I 0,0 C 63 % 88 % 0 % 992,6 hPa 0,0 l/m 6,7 km/h (2 Bft) 0 min 5,3 km/h (1 Bft)
05.11.2009 14:40 13,9 C 9,1 C 0,0 UV-I 0,0 C 63 % 88 % 0 % 992,6 hPa 0,0 l/m 6,3 km/h (2 Bft) 0 min 9,1 km/h (2 Bft)
05.11.2009 14:42 13,9 C 9,1 C 0,0 UV-I 0,0 C 63 % 88 % 0 % 992,6 hPa 0,0 l/m 6,3 km/h (2 Bft) 0 min 11,5 km/h (2 Bft)
05.11.2009 14:44 13,9 C 9,1 C 0,0 UV-I 0,0 C 63 % 88 % 0 % 992,6 hPa 0,0 l/m 6,3 km/h (2 Bft) 0 min 4,6 km/h (1 Bft)
05.11.2009 14:46 13,9 C 9,1 C 0,0 UV-I 0,0 C 63 % 88 % 0 % 992,6 hPa 0,0 l/m 6,3 km/h (2 Bft) 0 min 5,3 km/h (1 Bft)
05.11.2009 14:48 14,0 C 9,1 C 0,0 UV-I 0,0 C 63 % 88 % 0 % 992,6 hPa 0,0 l/m 6,3 km/h (2 Bft) 0 min 7,2 km/h (2 Bft)
05.11.2009 14:50 13,9 C 9,1 C 0,0 UV-I 0,0 C 63 % 88 % 0 % 992,6 hPa 0,0 l/m 5,5 km/h (1 Bft) 0 min 2,9 km/h (1 Bft)
05.11.2009 14:52 13,9 C 9,1 C 0,0 UV-I 0,0 C 63 % 88 % 0 % 992,6 hPa 0,0 l/m 5,3 km/h (1 Bft) 0 min 4,3 km/h (1 Bft)
05.11.2009 14:54 13,9 C 9,1 C 0,0 UV-I 0,0 C 63 % 88 % 0 % 992,6 hPa 0,0 l/m 4,3 km/h (1 Bft) 0 min 7,5 km/h (2 Bft)
05.11.2009 14:56 13,9 C 9,1 C 0,0 UV-I 0,0 C 63 % 88 % 0 % 992,9 hPa 0,0 l/m 4,3 km/h (1 Bft) 0 min 4,1 km/h (1 Bft)
05.11.2009 14:58 14,0 C 9,1 C 0,0 UV-I 0,0 C 63 % 88 % 0 % 992,9 hPa 0,0 l/m 5,3 km/h (1 Bft) 0 min 7,2 km/h (2 Bft)
05.11.2009 15:00 14,0 C 9,1 C 0,0 UV-I 0,0 C 63 % 88 % 0 % 992,9 hPa 0,0 l/m 5,3 km/h (1 Bft) 0 min 5,5 km/h (1 Bft)
05.11.2009 15:02 14,0 C 9,1 C 0,0 UV-I 0,0 C 63 % 88 % 0 % 992,9 hPa 0,0 l/m 6,5 km/h (2 Bft) 0 min 10,1 km/h (2 Bft)
05.11.2009 15:04 14,0 C 9,1 C 0,0 UV-I 0,0 C 63 % 88 % 0 % 992,9 hPa 0,0 l/m 7,2 km/h (2 Bft) 0 min 8,7 km/h (2 Bft)
05.11.2009 15:08 13,9 C 9,1 C 0,0 UV-I 0,0 C 63 % 88 % 0 % 992,9 hPa 0,0 l/m 7,2 km/h (2 Bft) 0 min 7,2 km/h (2 Bft)
05.11.2009 15:10 14,0 C 9,1 C 0,0 UV-I 0,0 C 63 % 88 % 0 % 992,9 hPa 0,0 l/m 6,5 km/h (2 Bft) 0 min 5,5 km/h (1 Bft)
05.11.2009 15:12 14,0 C 9,1 C 0,0 UV-I 0,0 C 63 % 88 % 0 % 992,9 hPa 0,0 l/m 6,5 km/h (2 Bft) 0 min 13,5 km/h (3 Bft)
05.11.2009 15:14 14,0 C 9,1 C 0,0 UV-I 0,0 C 63 % 88 % 0 % 992,9 hPa 0,0 l/m 5,3 km/h (1 Bft) 0 min 4,8 km/h (1 Bft)
05.11.2009 15:16 14,0 C 9,1 C 0,0 UV-I 0,0 C 63 % 88 % 0 % 992,9 hPa 0,0 l/m 5,5 km/h (1 Bft) 0 min 8,4 km/h (2 Bft)
05.11.2009 15:18 14,0 C 9,1 C 0,0 UV-I 0,0 C 63 % 88 % 0 % 992,9 hPa 0,0 l/m 5,5 km/h (1 Bft) 0 min 6,5 km/h (2 Bft)
05.11.2009 15:20 14,0 C 9,1 C 0,0 UV-I 0,0 C 63 % 88 % 0 % 992,9 hPa 0,0 l/m 6,0 km/h (2 Bft) 0 min 7,9 km/h (2 Bft)
05.11.2009 15:22 14,0 C 9,1 C 0,0 UV-I 0,0 C 63 % 88 % 0 % 992,9 hPa 0,0 l/m 6,0 km/h (2 Bft) 0 min 9,1 km/h (2 Bft)
05.11.2009 15:24 13,9 C 9,1 C 0,0 UV-I 0,0 C 63 % 88 % 0 % 992,9 hPa 0,0 l/m 5,8 km/h (2 Bft) 0 min 10,1 km/h (2 Bft)
05.11.2009 15:26 14,0 C 9,1 C 0,0 UV-I 0,0 C 63 % 87 % 0 % 992,9 hPa 0,0 l/m 6,0 km/h (2 Bft) 0 min 6,3 km/h (2 Bft)
05.11.2009 15:28 13,9 C 9,1 C 0,0 UV-I 0,0 C 63 % 87 % 0 % 992,9 hPa 0,0 l/m 6,5 km/h (2 Bft) 0 min 15,4 km/h (3 Bft)
05.11.2009 15:30 14,0 C 9,1 C 0,0 UV-I 0,0 C 63 % 87 % 0 % 992,9 hPa 0,0 l/m 6,5 km/h (2 Bft) 0 min 11,8 km/h (2 Bft)
05.11.2009 15:32 14,0 C 9,1 C 0,0 UV-I 0,0 C 63 % 87 % 0 % 992,9 hPa 0,0 l/m 7,0 km/h (2 Bft) 0 min 8,9 km/h (2 Bft)
05.11.2009 15:34 14,0 C 9,1 C 0,0 UV-I 0,0 C 63 % 87 % 0 % 992,9 hPa 0,0 l/m 7,2 km/h (2 Bft) 0 min 0,0 km/h (0 Bft)
05.11.2009 15:36 14,0 C 9,1 C 0,0 UV-I 0,0 C 63 % 87 % 0 % 992,5 hPa 0,0 l/m 7,0 km/h (2 Bft) 0 min 10,3 km/h (2 Bft)
05.11.2009 15:38 14,0 C 9,1 C 0,0 UV-I 0,0 C 63 % 87 % 0 % 992,5 hPa 0,0 l/m 7,2 km/h (2 Bft) 0 min 7,0 km/h (2 Bft)
05.11.2009 15:40 14,0 C 9,2 C 0,0 UV-I 0,0 C 63 % 87 % 0 % 992,5 hPa 0,0 l/m 6,3 km/h (2 Bft) 0 min 8,9 km/h (2 Bft)
05.11.2009 15:42 14,0 C 9,2 C 0,0 UV-I 0,0 C 63 % 87 % 0 % 992,5 hPa 0,1 l/m 5,8 km/h (2 Bft) 0 min 8,4 km/h (2 Bft)
05.11.2009 15:44 14,0 C 9,2 C 0,0 UV-I 0,0 C 63 % 87 % 0 % 992,5 hPa 0,0 l/m 6,0 km/h (2 Bft) 0 min 8,7 km/h (2 Bft)
05.11.2009 15:46 14,0 C 9,2 C 0,0 UV-I 0,0 C 63 % 87 % 0 % 992,5 hPa 0,0 l/m 6,3 km/h (2 Bft) 0 min 3,8 km/h (1 Bft)
05.11.2009 15:48 14,0 C 9,1 C 0,0 UV-I 0,0 C 63 % 88 % 0 % 992,5 hPa 0,0 l/m 5,3 km/h (1 Bft) 0 min 6,0 km/h (2 Bft)
05.11.2009 15:50 14,0 C 9,1 C 0,0 UV-I 0,0 C 63 % 88 % 0 % 992,5 hPa 0,0 l/m 6,0 km/h (2 Bft) 0 min 7,9 km/h (2 Bft)
05.11.2009 15:52 13,9 C 9,1 C 0,0 UV-I 0,0 C 63 % 88 % 0 % 992,5 hPa 0,0 l/m 5,8 km/h (2 Bft) 0 min 7,2 km/h (2 Bft)
05.11.2009 15:56 13,9 C 9,1 C 0,1 UV-I 0,0 C 63 % 88 % 0 % 992,9 hPa 0,0 l/m 4,3 km/h (1 Bft) 0 min 4,1 km/h (1 Bft)
05.11.2009 15:58 13,9 C 9,1 C 0,1 UV-I 0,0 C 63 % 89 % 0 % 992,9 hPa 0,0 l/m 4,8 km/h (1 Bft) 0 min 14,2 km/h (3 Bft)
05.11.2009 16:00 13,9 C 9,1 C 0,1 UV-I 0,0 C 63 % 88 % 0 % 992,9 hPa 0,0 l/m 5,1 km/h (1 Bft) 0 min 7,2 km/h (2 Bft)
05.11.2009 16:02 14,1 C 9,1 C 0,1 UV-I 0,0 C 63 % 88 % 0 % 992,9 hPa 0,0 l/m 5,8 km/h (2 Bft) 0 min 6,3 km/h (2 Bft)
05.11.2009 16:04 14,1 C 9,1 C 0,1 UV-I 0,0 C 63 % 88 % 0 % 992,9 hPa 0,0 l/m 6,5 km/h (2 Bft) 0 min 7,7 km/h (2 Bft)
05.11.2009 16:08 14,1 C 9,1 C 0,2 UV-I 0,0 C 63 % 88 % 0 % 992,9 hPa 0,0 l/m 8,2 km/h (2 Bft) 0 min 14,2 km/h (3 Bft)
05.11.2009 16:10 14,1 C 9,1 C 0,1 UV-I 0,0 C 63 % 88 % 0 % 992,9 hPa 0,0 l/m 7,2 km/h (2 Bft) 0 min 7,2 km/h (2 Bft)
05.11.2009 16:12 14,1 C 9,1 C 0,1 UV-I 0,0 C 63 % 88 % 0 % 992,9 hPa 0,0 l/m 7,5 km/h (2 Bft) 0 min 5,1 km/h (1 Bft)
05.11.2009 16:14 14,1 C 9,1 C 0,1 UV-I 0,0 C 63 % 88 % 0 % 992,9 hPa 0,0 l/m 7,7 km/h (2 Bft) 0 min 8,7 km/h (2 Bft)
05.11.2009 16:16 14,1 C 9,2 C 0,1 UV-I 0,0 C 63 % 88 % 0 % 993,6 hPa 0,0 l/m 7,0 km/h (2 Bft) 0 min 10,8 km/h (2 Bft)
05.11.2009 16:18 14,1 C 9,1 C 0,1 UV-I 0,0 C 63 % 87 % 0 % 993,6 hPa 0,0 l/m 6,7 km/h (2 Bft) 0 min 6,5 km/h (2 Bft)
05.11.2009 16:20 14,1 C 9,1 C 0,1 UV-I 0,0 C 63 % 87 % 0 % 993,6 hPa 0,0 l/m 7,5 km/h (2 Bft) 0 min 12,5 km/h (3 Bft)
05.11.2009 16:22 14,1 C 9,2 C 0,1 UV-I 0,0 C 63 % 87 % 0 % 993,6 hPa 0,0 l/m 7,5 km/h (2 Bft) 0 min 5,3 km/h (1 Bft)
05.11.2009 16:26 14,1 C 9,2 C 0,0 UV-I 0,0 C 63 % 87 % 0 % 993,6 hPa 0,0 l/m 5,8 km/h (2 Bft) 0 min 10,8 km/h (2 Bft)
05.11.2009 16:28 14,1 C 9,1 C 0,0 UV-I 0,0 C 63 % 87 % 0 % 993,6 hPa 0,0 l/m 5,5 km/h (1 Bft) 0 min 6,7 km/h (2 Bft)
05.11.2009 16:30 14,1 C 9,2 C 0,0 UV-I 0,0 C 63 % 87 % 0 % 993,6 hPa 0,0 l/m 6,3 km/h (2 Bft) 0 min 14,9 km/h (3 Bft)
05.11.2009 16:32 14,1 C 9,2 C 0,0 UV-I 0,0 C 63 % 87 % 0 % 993,6 hPa 0,0 l/m 6,3 km/h (2 Bft) 0 min 9,6 km/h (2 Bft)
05.11.2009 16:34 14,1 C 9,2 C 0,0 UV-I 0,0 C 63 % 87 % 0 % 993,6 hPa 0,0 l/m 6,7 km/h (2 Bft) 0 min 14,2 km/h (3 Bft)
05.11.2009 16:36 14,1 C 9,1 C 0,0 UV-I 0,0 C 63 % 87 % 0 % 993,8 hPa 0,0 l/m 6,5 km/h (2 Bft) 0 min 4,1 km/h (1 Bft)
05.11.2009 16:38 14,1 C 9,1 C 0,0 UV-I 0,0 C 63 % 87 % 0 % 993,8 hPa 0,0 l/m 6,7 km/h (2 Bft) 0 min 6,7 km/h (2 Bft)
05.11.2009 16:40 14,1 C 9,1 C 0,0 UV-I 0,0 C 63 % 87 % 0 % 993,8 hPa 0,0 l/m 6,3 km/h (2 Bft) 0 min 2,9 km/h (1 Bft)
05.11.2009 16:42 14,1 C 9,1 C 0,0 UV-I 0,0 C 63 % 87 % 0 % 993,8 hPa 0,0 l/m 6,3 km/h (2 Bft) 0 min 4,3 km/h (1 Bft)
05.11.2009 16:44 14,1 C 9,1 C 0,0 UV-I 0,0 C 63 % 87 % 0 % 993,8 hPa 0,0 l/m 5,1 km/h (1 Bft) 0 min 5,1 km/h (1 Bft)
05.11.2009 16:46 14,1 C 9,1 C 0,0 UV-I 0,0 C 63 % 87 % 0 % 993,8 hPa 0,0 l/m 4,8 km/h (1 Bft) 0 min 15,2 km/h (3 Bft)
05.11.2009 16:48 14,1 C 9,0 C 0,0 UV-I 0,0 C 63 % 87 % 0 % 993,8 hPa 0,0 l/m 6,0 km/h (2 Bft) 0 min 18,8 km/h (3 Bft)
05.11.2009 16:50 14,1 C 9,0 C 0,0 UV-I 0,0 C 63 % 87 % 0 % 993,8 hPa 0,0 l/m 5,8 km/h (2 Bft) 0 min 3,6 km/h (1 Bft)
05.11.2009 16:54 14,1 C 9,1 C 0,0 UV-I 0,0 C 63 % 87 % 0 % 993,8 hPa 0,0 l/m 6,3 km/h (2 Bft) 0 min 13,2 km/h (3 Bft)
05.11.2009 16:56 13,9 C 9,1 C 0,0 UV-I 0,0 C 63 % 87 % 0 % 994,0 hPa 0,0 l/m 6,3 km/h (2 Bft) 0 min 0,0 km/h (0 Bft)
05.11.2009 16:58 14,1 C 9,1 C 0,0 UV-I 0,0 C 63 % 87 % 0 % 994,0 hPa 0,0 l/m 6,5 km/h (2 Bft) 0 min 17,3 km/h (3 Bft)
05.11.2009 17:00 13,9 C 9,1 C 0,0 UV-I 0,0 C 63 % 87 % 0 % 994,0 hPa 0,0 l/m 5,3 km/h (1 Bft) 0 min 0,0 km/h (0 Bft)
05.11.2009 17:02 13,9 C 9,1 C 0,0 UV-I 0,0 C 62 % 87 % 0 % 994,0 hPa 0,0 l/m 5,3 km/h (1 Bft) 0 min 6,7 km/h (2 Bft)
05.11.2009 17:04 13,9 C 9,1 C 0,0 UV-I 0,0 C 62 % 87 % 0 % 994,0 hPa 0,0 l/m 4,3 km/h (1 Bft) 0 min 2,6 km/h (1 Bft)
05.11.2009 17:06 13,9 C 9,1 C 0,0 UV-I 0,0 C 62 % 87 % 0 % 994,0 hPa 0,0 l/m 5,3 km/h (1 Bft) 0 min 5,1 km/h (1 Bft)
05.11.2009 17:08 13,9 C 9,1 C 0,0 UV-I 0,0 C 63 % 87 % 0 % 994,0 hPa 0,0 l/m 5,3 km/h (1 Bft) 0 min 7,5 km/h (2 Bft)
05.11.2009 17:10 13,9 C 9,1 C 0,0 UV-I 0,0 C 63 % 87 % 0 % 994,0 hPa 0,0 l/m 4,8 km/h (1 Bft) 0 min 3,6 km/h (1 Bft)
05.11.2009 17:12 13,9 C 9,0 C 0,0 UV-I 0,0 C 62 % 87 % 0 % 994,0 hPa 0,0 l/m 5,5 km/h (1 Bft) 0 min 4,8 km/h (1 Bft)
05.11.2009 17:14 13,9 C 9,0 C 0,0 UV-I 0,0 C 63 % 87 % 0 % 994,0 hPa 0,0 l/m 5,3 km/h (1 Bft) 0 min 4,6 km/h (1 Bft)
05.11.2009 17:16 14,0 C 9,0 C 0,0 UV-I 0,0 C 63 % 87 % 0 % 994,4 hPa 0,0 l/m 4,8 km/h (1 Bft) 0 min 5,5 km/h (1 Bft)
05.11.2009 17:18 14,0 C 9,1 C 0,0 UV-I 0,0 C 63 % 87 % 0 % 994,4 hPa 0,0 l/m 5,1 km/h (1 Bft) 0 min 7,2 km/h (2 Bft)
05.11.2009 17:22 14,0 C 9,1 C 0,0 UV-I 0,0 C 63 % 87 % 0 % 994,4 hPa 0,0 l/m 5,5 km/h (1 Bft) 0 min 8,4 km/h (2 Bft)
05.11.2009 17:24 13,9 C 9,1 C 0,0 UV-I 0,0 C 63 % 87 % 0 % 994,4 hPa 0,0 l/m 5,3 km/h (1 Bft) 0 min 6,7 km/h (2 Bft)
05.11.2009 17:26 14,0 C 9,1 C 0,0 UV-I 0,0 C 63 % 87 % 0 % 994,4 hPa 0,0 l/m 5,5 km/h (1 Bft) 0 min 4,3 km/h (1 Bft)
05.11.2009 17:28 14,0 C 9,0 C 0,0 UV-I 0,0 C 63 % 87 % 0 % 994,4 hPa 0,0 l/m 5,5 km/h (1 Bft) 0 min 4,8 km/h (1 Bft)
05.11.2009 17:30 14,0 C 9,1 C 0,0 UV-I 0,0 C 63 % 87 % 0 % 994,4 hPa 0,0 l/m 4,8 km/h (1 Bft) 0 min 11,5 km/h (2 Bft)
05.11.2009 17:32 14,0 C 9,1 C 0,0 UV-I 0,0 C 63 % 87 % 0 % 994,4 hPa 0,0 l/m 4,8 km/h (1 Bft) 0 min 7,0 km/h (2 Bft)
05.11.2009 17:34 14,0 C 9,1 C 0,0 UV-I 0,0 C 63 % 87 % 0 % 994,4 hPa 0,0 l/m 4,6 km/h (1 Bft) 0 min 3,1 km/h (1 Bft)
05.11.2009 17:36 14,0 C 9,1 C 0,0 UV-I 0,0 C 63 % 87 % 0 % 994,8 hPa 0,0 l/m 4,1 km/h (1 Bft) 0 min 3,6 km/h (1 Bft)
05.11.2009 17:38 14,0 C 9,1 C 0,0 UV-I 0,0 C 63 % 87 % 0 % 994,8 hPa 0,0 l/m 3,6 km/h (1 Bft) 0 min 4,6 km/h (1 Bft)
05.11.2009 17:40 14,0 C 9,1 C 0,0 UV-I 0,0 C 63 % 87 % 0 % 994,8 hPa 0,0 l/m 3,6 km/h (1 Bft) 0 min 4,6 km/h (1 Bft)
05.11.2009 17:42 14,0 C 9,1 C 0,0 UV-I 0,0 C 63 % 87 % 0 % 994,8 hPa 0,0 l/m 3,4 km/h (1 Bft) 0 min 4,8 km/h (1 Bft)
05.11.2009 17:44 14,0 C 9,1 C 0,0 UV-I 0,0 C 63 % 87 % 0 % 994,8 hPa 0,0 l/m 3,8 km/h (1 Bft) 0 min 10,1 km/h (2 Bft)
05.11.2009 17:46 14,0 C 9,1 C 0,0 UV-I 0,0 C 63 % 87 % 0 % 994,8 hPa 0,0 l/m 4,3 km/h (1 Bft) 0 min 12,0 km/h (2 Bft)
05.11.2009 17:48 14,0 C 9,1 C 0,0 UV-I 0,0 C 63 % 87 % 0 % 994,8 hPa 0,0 l/m 4,8 km/h (1 Bft) 0 min 4,8 km/h (1 Bft)
05.11.2009 17:50 14,0 C 9,1 C 0,0 UV-I 0,0 C 63 % 87 % 0 % 994,8 hPa 0,0 l/m 4,8 km/h (1 Bft) 0 min 5,8 km/h (2 Bft)
05.11.2009 17:52 14,0 C 9,1 C 0,0 UV-I 0,0 C 63 % 87 % 0 % 994,8 hPa 0,0 l/m 4,6 km/h (1 Bft) 0 min 5,3 km/h (1 Bft)
05.11.2009 17:54 14,0 C 9,1 C 0,0 UV-I 0,0 C 63 % 87 % 0 % 994,8 hPa 0,0 l/m 4,8 km/h (1 Bft) 0 min 10,8 km/h (2 Bft)
05.11.2009 17:56 14,0 C 9,0 C 0,0 UV-I 0,0 C 63 % 87 % 0 % 995,0 hPa 0,0 l/m 4,6 km/h (1 Bft) 0 min 5,3 km/h (1 Bft)
05.11.2009 17:58 14,0 C 9,0 C 0,0 UV-I 0,0 C 63 % 87 % 0 % 995,0 hPa 0,0 l/m 4,1 km/h (1 Bft) 0 min 5,8 km/h (2 Bft)
05.11.2009 18:00 14,0 C 9,1 C 0,0 UV-I 0,0 C 63 % 87 % 0 % 995,0 hPa 0,0 l/m 4,1 km/h (1 Bft) 0 min 3,4 km/h (1 Bft)
05.11.2009 18:02 14,0 C 9,1 C 0,0 UV-I 0,0 C 63 % 87 % 0 % 995,0 hPa 0,0 l/m 4,1 km/h (1 Bft) 0 min 5,8 km/h (2 Bft)
05.11.2009 18:04 14,0 C 9,0 C 0,0 UV-I 0,0 C 63 % 87 % 0 % 995,0 hPa 0,0 l/m 4,3 km/h (1 Bft) 0 min 11,5 km/h (2 Bft)
05.11.2009 18:06 14,0 C 9,1 C 0,0 UV-I 0,0 C 63 % 87 % 0 % 995,0 hPa 0,0 l/m 4,3 km/h (1 Bft) 0 min 6,5 km/h (2 Bft)
05.11.2009 18:08 14,0 C 9,1 C 0,0 UV-I 0,0 C 63 % 87 % 0 % 995,0 hPa 0,0 l/m 4,1 km/h (1 Bft) 0 min 0,0 km/h (0 Bft)
05.11.2009 18:10 14,0 C 9,1 C 0,0 UV-I 0,0 C 63 % 87 % 0 % 995,0 hPa 0,0 l/m 4,3 km/h (1 Bft) 0 min 6,3 km/h (2 Bft)
05.11.2009 18:14 13,8 C 9,1 C 0,0 UV-I 0,0 C 63 % 87 % 0 % 995,0 hPa 0,0 l/m 5,8 km/h (2 Bft) 0 min 9,6 km/h (2 Bft)
05.11.2009 18:16 14,0 C 9,1 C 0,0 UV-I 0,0 C 63 % 87 % 0 % 995,1 hPa 0,0 l/m 5,1 km/h (1 Bft) 0 min 2,9 km/h (1 Bft)
05.11.2009 18:18 14,0 C 9,1 C 0,0 UV-I 0,0 C 63 % 87 % 0 % 995,1 hPa 0,0 l/m 5,3 km/h (1 Bft) 0 min 2,9 km/h (1 Bft)
05.11.2009 18:20 14,0 C 9,1 C 0,0 UV-I 0,0 C 63 % 87 % 0 % 995,1 hPa 0,0 l/m 5,5 km/h (1 Bft) 0 min 8,2 km/h (2 Bft)
05.11.2009 18:22 14,0 C 9,1 C 0,0 UV-I 0,0 C 63 % 87 % 0 % 995,1 hPa 0,0 l/m 4,6 km/h (1 Bft) 0 min 6,7 km/h (2 Bft)
05.11.2009 18:24 14,0 C 9,1 C 0,0 UV-I 0,0 C 63 % 87 % 0 % 995,1 hPa 0,0 l/m 3,8 km/h (1 Bft) 0 min 2,6 km/h (1 Bft)
05.11.2009 18:26 14,0 C 9,1 C 0,0 UV-I 0,0 C 63 % 87 % 0 % 995,1 hPa 0,0 l/m 3,4 km/h (1 Bft) 0 min 4,8 km/h (1 Bft)
05.11.2009 18:28 14,0 C 9,1 C 0,0 UV-I 0,0 C 63 % 87 % 0 % 995,1 hPa 0,0 l/m 3,6 km/h (1 Bft) 0 min 18,8 km/h (3 Bft)
05.11.2009 18:30 14,0 C 9,1 C 0,0 UV-I 0,0 C 63 % 87 % 0 % 995,1 hPa 0,0 l/m 3,8 km/h (1 Bft) 0 min 4,8 km/h (1 Bft)
05.11.2009 18:32 14,0 C 9,1 C 0,0 UV-I 0,0 C 63 % 87 % 0 % 995,1 hPa 0,0 l/m 4,1 km/h (1 Bft) 0 min 8,7 km/h (2 Bft)
05.11.2009 18:34 14,0 C 9,1 C 0,0 UV-I 0,0 C 63 % 87 % 0 % 995,1 hPa 0,0 l/m 4,6 km/h (1 Bft) 0 min 5,1 km/h (1 Bft)
05.11.2009 18:36 14,0 C 9,1 C 0,0 UV-I 0,0 C 63 % 87 % 0 % 995,5 hPa 0,0 l/m 4,8 km/h (1 Bft) 0 min 6,5 km/h (2 Bft)
05.11.2009 18:40 14,0 C 9,0 C 0,0 UV-I 0,0 C 63 % 87 % 0 % 995,5 hPa 0,0 l/m 4,8 km/h (1 Bft) 0 min 7,2 km/h (2 Bft)
05.11.2009 18:42 14,0 C 9,1 C 0,0 UV-I 0,0 C 63 % 87 % 0 % 995,5 hPa 0,0 l/m 5,1 km/h (1 Bft) 0 min 10,6 km/h (2 Bft)
05.11.2009 18:44 14,0 C 9,1 C 0,0 UV-I 0,0 C 63 % 87 % 0 % 995,5 hPa 0,0 l/m 4,6 km/h (1 Bft) 0 min 8,9 km/h (2 Bft)
05.11.2009 18:46 14,0 C 9,1 C 0,0 UV-I 0,0 C 63 % 87 % 0 % 995,5 hPa 0,0 l/m 4,8 km/h (1 Bft) 0 min 3,8 km/h (1 Bft)
05.11.2009 18:48 14,0 C 9,1 C 0,0 UV-I 0,0 C 63 % 87 % 0 % 995,5 hPa 0,0 l/m 4,8 km/h (1 Bft) 0 min 7,2 km/h (2 Bft)
05.11.2009 18:50 14,0 C 9,0 C 0,0 UV-I 0,0 C 63 % 87 % 0 % 995,5 hPa 0,0 l/m 4,6 km/h (1 Bft) 0 min 2,9 km/h (1 Bft)
05.11.2009 18:52 14,0 C 9,0 C 0,0 UV-I 0,0 C 63 % 87 % 0 % 995,5 hPa 0,0 l/m 3,8 km/h (1 Bft) 0 min 4,3 km/h (1 Bft)
05.11.2009 18:54 14,0 C 9,0 C 0,0 UV-I 0,0 C 63 % 88 % 0 % 995,5 hPa 0,0 l/m 3,8 km/h (1 Bft) 0 min 4,6 km/h (1 Bft)
05.11.2009 18:58 14,0 C 8,9 C 0,0 UV-I 0,0 C 63 % 88 % 0 % 995,6 hPa 0,0 l/m 3,1 km/h (1 Bft) 0 min 4,1 km/h (1 Bft)
05.11.2009 19:00 14,0 C 8,9 C 0,0 UV-I 0,0 C 63 % 88 % 0 % 995,6 hPa 0,0 l/m 3,4 km/h (1 Bft) 0 min 7,7 km/h (2 Bft)
05.11.2009 19:02 14,0 C 8,9 C 0,0 UV-I 0,0 C 63 % 88 % 0 % 995,6 hPa 0,0 l/m 3,6 km/h (1 Bft) 0 min 4,1 km/h (1 Bft)
05.11.2009 19:04 14,0 C 8,9 C 0,0 UV-I 0,0 C 63 % 88 % 0 % 995,6 hPa 0,0 l/m 3,6 km/h (1 Bft) 0 min 4,1 km/h (1 Bft)
05.11.2009 19:06 14,0 C 8,9 C 0,0 UV-I 0,0 C 63 % 88 % 0 % 995,6 hPa 0,0 l/m 3,8 km/h (1 Bft) 0 min 7,5 km/h (2 Bft)
05.11.2009 19:08 14,0 C 8,9 C 0,0 UV-I 0,0 C 63 % 88 % 0 % 995,6 hPa 0,0 l/m 4,3 km/h (1 Bft) 0 min 5,5 km/h (1 Bft)
05.11.2009 19:10 14,0 C 8,9 C 0,0 UV-I 0,0 C 63 % 88 % 0 % 995,6 hPa 0,1 l/m 3,8 km/h (1 Bft) 0 min 5,5 km/h (1 Bft)
05.11.2009 19:14 14,0 C 8,9 C 0,0 UV-I 0,0 C 63 % 88 % 0 % 995,6 hPa 0,0 l/m 3,8 km/h (1 Bft) 0 min 5,5 km/h (1 Bft)
05.11.2009 19:16 14,0 C 8,9 C 0,0 UV-I 0,0 C 63 % 88 % 0 % 995,9 hPa 0,0 l/m 3,8 km/h (1 Bft) 0 min 11,5 km/h (2 Bft)
05.11.2009 19:18 13,8 C 8,9 C 0,0 UV-I 0,0 C 63 % 89 % 0 % 995,9 hPa 0,0 l/m 3,8 km/h (1 Bft) 0 min 7,2 km/h (2 Bft)
05.11.2009 19:20 13,8 C 8,9 C 0,0 UV-I 0,0 C 63 % 89 % 0 % 995,9 hPa 0,1 l/m 4,1 km/h (1 Bft) 0 min 3,6 km/h (1 Bft)
05.11.2009 19:22 13,8 C 8,9 C 0,0 UV-I 0,0 C 63 % 89 % 0 % 995,9 hPa 0,0 l/m 4,1 km/h (1 Bft) 0 min 3,6 km/h (1 Bft)
05.11.2009 19:24 14,0 C 8,8 C 0,0 UV-I 0,0 C 63 % 89 % 0 % 995,9 hPa 0,0 l/m 3,8 km/h (1 Bft) 0 min 3,8 km/h (1 Bft)
05.11.2009 19:26 14,0 C 8,8 C 0,0 UV-I 0,0 C 63 % 89 % 0 % 995,9 hPa 0,0 l/m 3,6 km/h (1 Bft) 0 min 9,6 km/h (2 Bft)
05.11.2009 19:28 13,8 C 8,8 C 0,0 UV-I 0,0 C 63 % 89 % 0 % 995,9 hPa 0,0 l/m 3,4 km/h (1 Bft) 0 min 7,2 km/h (2 Bft)
05.11.2009 19:30 13,8 C 8,8 C 0,0 UV-I 0,0 C 63 % 89 % 0 % 995,9 hPa 0,0 l/m 3,1 km/h (1 Bft) 0 min 4,6 km/h (1 Bft)
05.11.2009 19:32 13,8 C 8,9 C 0,0 UV-I 0,0 C 63 % 89 % 0 % 995,9 hPa 0,0 l/m 2,9 km/h (1 Bft) 0 min 5,8 km/h (2 Bft)
05.11.2009 19:34 13,8 C 8,8 C 0,0 UV-I 0,0 C 63 % 89 % 0 % 995,9 hPa 0,0 l/m 3,4 km/h (1 Bft) 0 min 0,0 km/h (0 Bft)
05.11.2009 19:38 14,0 C 8,8 C 0,0 UV-I 0,0 C 63 % 90 % 0 % 996,1 hPa 0,0 l/m 3,6 km/h (1 Bft) 0 min 4,3 km/h (1 Bft)
05.11.2009 19:42 13,8 C 8,8 C 0,0 UV-I 0,0 C 63 % 90 % 0 % 996,1 hPa 0,0 l/m 3,1 km/h (1 Bft) 0 min 6,7 km/h (2 Bft)
05.11.2009 19:44 13,8 C 8,8 C 0,0 UV-I 0,0 C 63 % 90 % 0 % 996,1 hPa 0,0 l/m 3,1 km/h (1 Bft) 0 min 6,7 km/h (2 Bft)
05.11.2009 19:46 13,8 C 8,7 C 0,0 UV-I 0,0 C 63 % 89 % 0 % 996,1 hPa 0,0 l/m 3,4 km/h (1 Bft) 0 min 10,6 km/h (2 Bft)
05.11.2009 19:48 13,8 C 8,7 C 0,0 UV-I 0,0 C 63 % 89 % 0 % 996,1 hPa 0,0 l/m 3,1 km/h (1 Bft) 0 min 5,5 km/h (1 Bft)
05.11.2009 19:50 13,8 C 8,7 C 0,0 UV-I 0,0 C 63 % 89 % 0 % 996,1 hPa 0,0 l/m 3,1 km/h (1 Bft) 0 min 5,5 km/h (1 Bft)
05.11.2009 19:52 13,9 C 8,7 C 0,0 UV-I 0,0 C 63 % 89 % 0 % 996,1 hPa 0,0 l/m 3,4 km/h (1 Bft) 0 min 0,0 km/h (0 Bft)
05.11.2009 19:54 13,9 C 8,7 C 0,0 UV-I 0,0 C 63 % 89 % 0 % 996,1 hPa 0,0 l/m 3,6 km/h (1 Bft) 0 min 6,3 km/h (2 Bft)
05.11.2009 19:56 13,9 C 8,7 C 0,0 UV-I 0,0 C 63 % 89 % 0 % 996,3 hPa 0,0 l/m 4,1 km/h (1 Bft) 0 min 7,7 km/h (2 Bft)
05.11.2009 19:58 13,9 C 8,7 C 0,0 UV-I 0,0 C 63 % 89 % 0 % 996,3 hPa 0,0 l/m 3,8 km/h (1 Bft) 0 min 0,0 km/h (0 Bft)
05.11.2009 20:00 13,9 C 8,7 C 0,0 UV-I 0,0 C 63 % 89 % 0 % 996,3 hPa 0,0 l/m 4,3 km/h (1 Bft) 0 min 6,0 km/h (2 Bft)
05.11.2009 20:02 13,9 C 8,7 C 0,0 UV-I 0,0 C 64 % 89 % 0 % 996,3 hPa 0,0 l/m 3,6 km/h (1 Bft) 0 min 3,4 km/h (1 Bft)
05.11.2009 20:04 13,9 C 8,7 C 0,0 UV-I 0,0 C 64 % 89 % 0 % 996,3 hPa 0,0 l/m 3,8 km/h (1 Bft) 0 min 5,3 km/h (1 Bft)
05.11.2009 20:06 13,9 C 8,7 C 0,0 UV-I 0,0 C 64 % 89 % 0 % 996,3 hPa 0,0 l/m 3,4 km/h (1 Bft) 0 min 0,0 km/h (0 Bft)
05.11.2009 20:08 13,9 C 8,7 C 0,0 UV-I 0,0 C 63 % 89 % 0 % 996,3 hPa 0,0 l/m 3,1 km/h (1 Bft) 0 min 5,8 km/h (2 Bft)
05.11.2009 20:10 13,9 C 8,7 C 0,0 UV-I 0,0 C 63 % 89 % 0 % 996,3 hPa 0,0 l/m 3,4 km/h (1 Bft) 0 min 7,7 km/h (2 Bft)
05.11.2009 20:12 13,9 C 8,7 C 0,0 UV-I 0,0 C 63 % 89 % 0 % 996,3 hPa 0,0 l/m 3,1 km/h (1 Bft) 0 min 7,0 km/h (2 Bft)
05.11.2009 20:14 13,9 C 8,7 C 0,0 UV-I 0,0 C 63 % 89 % 0 % 996,3 hPa 0,0 l/m 3,1 km/h (1 Bft) 0 min 3,1 km/h (1 Bft)
05.11.2009 20:16 13,8 C 8,7 C 0,0 UV-I 0,0 C 63 % 89 % 0 % 996,6 hPa 0,0 l/m 3,1 km/h (1 Bft) 0 min 5,3 km/h (1 Bft)
05.11.2009 20:18 13,9 C 8,7 C 0,0 UV-I 0,0 C 63 % 89 % 0 % 996,6 hPa 0,0 l/m 2,6 km/h (1 Bft) 0 min 0,0 km/h (0 Bft)
05.11.2009 20:20 13,8 C 8,7 C 0,0 UV-I 0,0 C 63 % 89 % 0 % 996,6 hPa 0,0 l/m 2,6 km/h (1 Bft) 0 min 5,8 km/h (2 Bft)
05.11.2009 20:22 13,8 C 8,7 C 0,0 UV-I 0,0 C 63 % 89 % 0 % 996,6 hPa 0,0 l/m 2,6 km/h (1 Bft) 0 min 5,5 km/h (1 Bft)
05.11.2009 20:24 13,9 C 8,7 C 0,0 UV-I 0,0 C 63 % 89 % 0 % 996,6 hPa 0,0 l/m 3,1 km/h (1 Bft) 0 min 4,8 km/h (1 Bft)
05.11.2009 20:26 13,8 C 8,7 C 0,0 UV-I 0,0 C 63 % 89 % 0 % 996,6 hPa 0,0 l/m 3,8 km/h (1 Bft) 0 min 5,3 km/h (1 Bft)
05.11.2009 20:28 13,8 C 8,7 C 0,0 UV-I 0,0 C 63 % 89 % 0 % 996,6 hPa 0,0 l/m 3,8 km/h (1 Bft) 0 min 2,6 km/h (1 Bft)
05.11.2009 20:30 13,8 C 8,7 C 0,0 UV-I 0,0 C 63 % 89 % 0 % 996,6 hPa 0,0 l/m 4,3 km/h (1 Bft) 0 min 3,4 km/h (1 Bft)
05.11.2009 20:32 13,8 C 8,7 C 0,0 UV-I 0,0 C 63 % 89 % 0 % 996,6 hPa 0,0 l/m 4,1 km/h (1 Bft) 0 min 8,2 km/h (2 Bft)
05.11.2009 20:34 13,9 C 8,7 C 0,0 UV-I 0,0 C 63 % 89 % 0 % 996,6 hPa 0,0 l/m 4,1 km/h (1 Bft) 0 min 8,4 km/h (2 Bft)
05.11.2009 20:36 13,9 C 8,7 C 0,0 UV-I 0,0 C 63 % 89 % 0 % 996,7 hPa 0,0 l/m 3,4 km/h (1 Bft) 0 min 4,1 km/h (1 Bft)
05.11.2009 20:38 13,8 C 8,6 C 0,0 UV-I 0,0 C 63 % 89 % 0 % 996,7 hPa 0,0 l/m 2,9 km/h (1 Bft) 0 min 3,4 km/h (1 Bft)
05.11.2009 20:40 14,0 C 8,6 C 0,0 UV-I 0,0 C 63 % 89 % 0 % 996,7 hPa 0,0 l/m 3,4 km/h (1 Bft) 0 min 6,0 km/h (2 Bft)
05.11.2009 20:42 14,0 C 8,6 C 0,0 UV-I 0,0 C 63 % 89 % 0 % 996,7 hPa 0,0 l/m 3,8 km/h (1 Bft) 0 min 8,2 km/h (2 Bft)
05.11.2009 20:44 14,0 C 8,6 C 0,0 UV-I 0,0 C 63 % 89 % 0 % 996,7 hPa 0,0 l/m 3,6 km/h (1 Bft) 0 min 4,8 km/h (1 Bft)
05.11.2009 20:46 14,0 C 8,6 C 0,0 UV-I 0,0 C 63 % 89 % 0 % 996,7 hPa 0,0 l/m 3,4 km/h (1 Bft) 0 min 0,0 km/h (0 Bft)
05.11.2009 20:48 14,0 C 8,7 C 0,0 UV-I 0,0 C 63 % 89 % 0 % 996,7 hPa 0,0 l/m 3,1 km/h (1 Bft) 0 min 2,4 km/h (1 Bft)
05.11.2009 20:50 14,0 C 8,7 C 0,0 UV-I 0,0 C 63 % 90 % 0 % 996,7 hPa 0,0 l/m 2,9 km/h (1 Bft) 0 min 6,5 km/h (2 Bft)
05.11.2009 20:52 14,0 C 8,7 C 0,0 UV-I 0,0 C 63 % 90 % 0 % 996,7 hPa 0,0 l/m 3,1 km/h (1 Bft) 0 min 3,6 km/h (1 Bft)
05.11.2009 20:54 14,0 C 8,6 C 0,0 UV-I 0,0 C 63 % 89 % 0 % 996,7 hPa 0,0 l/m 2,9 km/h (1 Bft) 0 min 6,3 km/h (2 Bft)
05.11.2009 20:56 14,0 C 8,7 C 0,0 UV-I 0,0 C 63 % 89 % 0 % 996,8 hPa 0,0 l/m 2,9 km/h (1 Bft) 0 min 5,5 km/h (1 Bft)
05.11.2009 20:58 14,0 C 8,6 C 0,0 UV-I 0,0 C 63 % 89 % 0 % 996,8 hPa 0,0 l/m 3,1 km/h (1 Bft) 0 min 3,8 km/h (1 Bft)
05.11.2009 21:00 14,0 C 8,6 C 0,0 UV-I 0,0 C 63 % 89 % 0 % 996,8 hPa 0,0 l/m 3,6 km/h (1 Bft) 0 min 4,6 km/h (1 Bft)
05.11.2009 21:02 14,0 C 8,7 C 0,0 UV-I 0,0 C 63 % 90 % 0 % 996,8 hPa 0,0 l/m 3,6 km/h (1 Bft) 0 min 8,4 km/h (2 Bft)
05.11.2009 21:04 14,0 C 8,7 C 0,0 UV-I 0,0 C 63 % 89 % 0 % 996,8 hPa 0,0 l/m 4,1 km/h (1 Bft) 0 min 9,4 km/h (2 Bft)
05.11.2009 21:06 13,8 C 8,7 C 0,0 UV-I 0,0 C 63 % 89 % 0 % 996,8 hPa 0,0 l/m 3,8 km/h (1 Bft) 0 min 5,1 km/h (1 Bft)
05.11.2009 21:08 14,0 C 8,7 C 0,0 UV-I 0,0 C 63 % 89 % 0 % 996,8 hPa 0,0 l/m 4,3 km/h (1 Bft) 0 min 9,4 km/h (2 Bft)
05.11.2009 21:10 13,8 C 8,7 C 0,0 UV-I 0,0 C 63 % 89 % 0 % 996,8 hPa 0,0 l/m 4,6 km/h (1 Bft) 0 min 7,0 km/h (2 Bft)
05.11.2009 21:12 13,9 C 8,7 C 0,0 UV-I 0,0 C 63 % 89 % 0 % 996,8 hPa 0,0 l/m 4,6 km/h (1 Bft) 0 min 7,9 km/h (2 Bft)
05.11.2009 21:14 14,0 C 8,7 C 0,0 UV-I 0,0 C 63 % 89 % 0 % 996,8 hPa 0,0 l/m 4,6 km/h (1 Bft) 0 min 6,3 km/h (2 Bft)
05.11.2009 21:16 13,8 C 8,7 C 0,0 UV-I 0,0 C 63 % 89 % 0 % 997,1 hPa 0,0 l/m 4,6 km/h (1 Bft) 0 min 7,7 km/h (2 Bft)
05.11.2009 21:18 13,8 C 8,7 C 0,0 UV-I 0,0 C 63 % 89 % 0 % 997,1 hPa 0,0 l/m 5,1 km/h (1 Bft) 0 min 13,2 km/h (3 Bft)
05.11.2009 21:20 13,9 C 8,7 C 0,0 UV-I 0,0 C 63 % 89 % 0 % 997,1 hPa 0,0 l/m 5,3 km/h (1 Bft) 0 min 15,2 km/h (3 Bft)
05.11.2009 21:22 13,9 C 8,7 C 0,0 UV-I 0,0 C 63 % 89 % 0 % 997,1 hPa 0,0 l/m 4,8 km/h (1 Bft) 0 min 3,6 km/h (1 Bft)
05.11.2009 21:24 13,9 C 8,7 C 0,0 UV-I 0,0 C 63 % 89 % 0 % 997,1 hPa 0,0 l/m 4,8 km/h (1 Bft) 0 min 7,9 km/h (2 Bft)
05.11.2009 21:26 13,9 C 8,7 C 0,0 UV-I 0,0 C 63 % 89 % 0 % 997,1 hPa 0,0 l/m 4,8 km/h (1 Bft) 0 min 5,3 km/h (1 Bft)
05.11.2009 21:28 13,9 C 8,7 C 0,0 UV-I 0,0 C 63 % 89 % 0 % 997,1 hPa 0,0 l/m 4,6 km/h (1 Bft) 0 min 5,5 km/h (1 Bft)
05.11.2009 21:30 13,9 C 8,6 C 0,0 UV-I 0,0 C 63 % 89 % 0 % 997,1 hPa 0,0 l/m 4,6 km/h (1 Bft) 0 min 8,9 km/h (2 Bft)
05.11.2009 21:32 13,9 C 8,7 C 0,0 UV-I 0,0 C 63 % 89 % 0 % 997,1 hPa 0,0 l/m 4,1 km/h (1 Bft) 0 min 5,1 km/h (1 Bft)
05.11.2009 21:34 13,9 C 8,7 C 0,0 UV-I 0,0 C 63 % 89 % 0 % 997,1 hPa 0,0 l/m 4,6 km/h (1 Bft) 0 min 8,7 km/h (2 Bft)
05.11.2009 21:36 13,9 C 8,7 C 0,0 UV-I 0,0 C 63 % 89 % 0 % 997,3 hPa 0,0 l/m 4,6 km/h (1 Bft) 0 min 6,7 km/h (2 Bft)
05.11.2009 21:38 13,9 C 8,7 C 0,0 UV-I 0,0 C 63 % 89 % 0 % 997,3 hPa 0,0 l/m 5,3 km/h (1 Bft) 0 min 6,3 km/h (2 Bft)
05.11.2009 21:40 13,9 C 8,7 C 0,0 UV-I 0,0 C 63 % 89 % 0 % 997,3 hPa 0,0 l/m 5,1 km/h (1 Bft) 0 min 4,8 km/h (1 Bft)
05.11.2009 21:42 13,9 C 8,6 C 0,0 UV-I 0,0 C 63 % 89 % 0 % 997,3 hPa 0,0 l/m 4,8 km/h (1 Bft) 0 min 4,8 km/h (1 Bft)
05.11.2009 21:44 13,8 C 8,6 C 0,0 UV-I 0,0 C 63 % 89 % 0 % 997,3 hPa 0,0 l/m 5,1 km/h (1 Bft) 0 min 6,5 km/h (2 Bft)
05.11.2009 21:46 13,9 C 8,5 C 0,0 UV-I 0,0 C 63 % 89 % 0 % 997,3 hPa 0,0 l/m 4,6 km/h (1 Bft) 0 min 6,0 km/h (2 Bft)
05.11.2009 21:50 13,9 C 8,5 C 0,0 UV-I 0,0 C 63 % 89 % 0 % 997,3 hPa 0,0 l/m 3,4 km/h (1 Bft) 0 min 5,8 km/h (2 Bft)
05.11.2009 21:52 13,9 C 8,5 C 0,0 UV-I 0,0 C 63 % 89 % 0 % 997,3 hPa 0,0 l/m 3,4 km/h (1 Bft) 0 min 2,9 km/h (1 Bft)
05.11.2009 21:54 13,9 C 8,4 C 0,0 UV-I 0,0 C 63 % 90 % 0 % 997,3 hPa 0,0 l/m 3,6 km/h (1 Bft) 0 min 6,3 km/h (2 Bft)
05.11.2009 21:56 13,9 C 8,4 C 0,0 UV-I 0,0 C 63 % 90 % 0 % 997,5 hPa 0,0 l/m 3,1 km/h (1 Bft) 0 min 4,3 km/h (1 Bft)
05.11.2009 21:58 13,9 C 8,4 C 0,0 UV-I 0,0 C 63 % 90 % 0 % 997,5 hPa 0,0 l/m 2,9 km/h (1 Bft) 0 min 3,1 km/h (1 Bft)
05.11.2009 22:00 13,9 C 8,5 C 0,0 UV-I 0,0 C 63 % 90 % 0 % 997,5 hPa 0,0 l/m 3,6 km/h (1 Bft) 0 min 5,8 km/h (2 Bft)
05.11.2009 22:02 13,9 C 8,5 C 0,0 UV-I 0,0 C 63 % 90 % 0 % 997,5 hPa 0,0 l/m 3,8 km/h (1 Bft) 0 min 6,0 km/h (2 Bft)
05.11.2009 22:04 13,8 C 8,5 C 0,0 UV-I 0,0 C 63 % 90 % 0 % 997,5 hPa 0,0 l/m 4,1 km/h (1 Bft) 0 min 7,7 km/h (2 Bft)
05.11.2009 22:06 13,8 C 8,5 C 0,0 UV-I 0,0 C 63 % 90 % 0 % 997,5 hPa 0,0 l/m 4,1 km/h (1 Bft) 0 min 3,1 km/h (1 Bft)
05.11.2009 22:08 13,9 C 8,4 C 0,0 UV-I 0,0 C 63 % 90 % 0 % 997,5 hPa 0,0 l/m 4,1 km/h (1 Bft) 0 min 2,6 km/h (1 Bft)
05.11.2009 22:10 13,8 C 8,4 C 0,0 UV-I 0,0 C 63 % 90 % 0 % 997,5 hPa 0,0 l/m 3,4 km/h (1 Bft) 0 min 5,3 km/h (1 Bft)
05.11.2009 22:12 13,8 C 8,3 C 0,0 UV-I 0,0 C 63 % 90 % 0 % 997,5 hPa 0,0 l/m 2,9 km/h (1 Bft) 0 min 4,1 km/h (1 Bft)
05.11.2009 22:14 13,9 C 8,3 C 0,0 UV-I 0,0 C 63 % 90 % 0 % 997,5 hPa 0,0 l/m 2,2 km/h (1 Bft) 0 min 3,4 km/h (1 Bft)
05.11.2009 22:16 13,8 C 8,3 C 0,0 UV-I 0,0 C 63 % 90 % 0 % 997,6 hPa 0,0 l/m 1,9 km/h (1 Bft) 0 min 4,3 km/h (1 Bft)
05.11.2009 22:18 14,0 C 8,3 C 0,0 UV-I 0,0 C 63 % 90 % 0 % 997,6 hPa 0,0 l/m 2,2 km/h (1 Bft) 0 min 4,3 km/h (1 Bft)
05.11.2009 22:20 14,0 C 8,3 C 0,0 UV-I 0,0 C 63 % 90 % 0 % 997,6 hPa 0,0 l/m 2,6 km/h (1 Bft) 0 min 2,9 km/h (1 Bft)
05.11.2009 22:22 13,8 C 8,3 C 0,0 UV-I 0,0 C 63 % 90 % 0 % 997,6 hPa 0,0 l/m 3,1 km/h (1 Bft) 0 min 3,8 km/h (1 Bft)
05.11.2009 22:24 13,8 C 8,3 C 0,0 UV-I 0,0 C 63 % 90 % 0 % 997,6 hPa 0,0 l/m 3,6 km/h (1 Bft) 0 min 10,8 km/h (2 Bft)
05.11.2009 22:26 13,9 C 8,3 C 0,0 UV-I 0,0 C 63 % 90 % 0 % 997,6 hPa 0,0 l/m 4,3 km/h (1 Bft) 0 min 12,5 km/h (3 Bft)
05.11.2009 22:28 13,9 C 8,3 C 0,0 UV-I 0,0 C 63 % 90 % 0 % 997,6 hPa 0,0 l/m 4,3 km/h (1 Bft) 0 min 5,8 km/h (2 Bft)
05.11.2009 22:30 13,9 C 8,3 C 0,0 UV-I 0,0 C 63 % 90 % 0 % 997,6 hPa 0,0 l/m 4,6 km/h (1 Bft) 0 min 10,8 km/h (2 Bft)
05.11.2009 22:32 13,9 C 8,3 C 0,0 UV-I 0,0 C 63 % 90 % 0 % 997,6 hPa 0,0 l/m 4,6 km/h (1 Bft) 0 min 9,4 km/h (2 Bft)
05.11.2009 22:34 13,9 C 8,2 C 0,0 UV-I 0,0 C 63 % 90 % 0 % 997,6 hPa 0,0 l/m 4,8 km/h (1 Bft) 0 min 6,5 km/h (2 Bft)
05.11.2009 22:36 13,9 C 8,3 C 0,0 UV-I 0,0 C 63 % 91 % 0 % 997,8 hPa 0,0 l/m 4,3 km/h (1 Bft) 0 min 5,8 km/h (2 Bft)
05.11.2009 22:38 13,9 C 8,3 C 0,0 UV-I 0,0 C 63 % 91 % 0 % 997,8 hPa 0,0 l/m 4,3 km/h (1 Bft) 0 min 3,6 km/h (1 Bft)
05.11.2009 22:40 13,9 C 8,2 C 0,0 UV-I 0,0 C 63 % 91 % 0 % 997,8 hPa 0,0 l/m 4,1 km/h (1 Bft) 0 min 10,1 km/h (2 Bft)
05.11.2009 22:42 13,9 C 8,3 C 0,0 UV-I 0,0 C 63 % 91 % 0 % 997,8 hPa 0,0 l/m 4,1 km/h (1 Bft) 0 min 6,5 km/h (2 Bft)
05.11.2009 22:44 13,9 C 8,3 C 0,0 UV-I 0,0 C 63 % 91 % 0 % 997,8 hPa 0,0 l/m 4,3 km/h (1 Bft) 0 min 9,4 km/h (2 Bft)
05.11.2009 22:48 13,9 C 8,2 C 0,0 UV-I 0,0 C 63 % 91 % 0 % 997,8 hPa 0,0 l/m 5,3 km/h (1 Bft) 0 min 12,3 km/h (3 Bft)
05.11.2009 22:50 13,9 C 8,2 C 0,0 UV-I 0,0 C 63 % 91 % 0 % 997,8 hPa 0,0 l/m 6,0 km/h (2 Bft) 0 min 8,7 km/h (2 Bft)
05.11.2009 22:52 13,8 C 8,3 C 0,0 UV-I 0,0 C 63 % 91 % 0 % 997,8 hPa 0,0 l/m 4,8 km/h (1 Bft) 0 min 0,0 km/h (0 Bft)
05.11.2009 22:54 13,8 C 8,3 C 0,0 UV-I 0,0 C 63 % 91 % 0 % 997,8 hPa 0,0 l/m 4,8 km/h (1 Bft) 0 min 11,3 km/h (2 Bft)
05.11.2009 22:56 13,9 C 8,3 C 0,0 UV-I 0,0 C 63 % 91 % 0 % 998,1 hPa 0,0 l/m 5,1 km/h (1 Bft) 0 min 5,8 km/h (2 Bft)
05.11.2009 22:58 13,8 C 8,2 C 0,0 UV-I 0,0 C 63 % 91 % 0 % 998,1 hPa 0,0 l/m 4,8 km/h (1 Bft) 0 min 7,7 km/h (2 Bft)
05.11.2009 23:00 13,8 C 8,3 C 0,0 UV-I 0,0 C 63 % 91 % 0 % 998,1 hPa 0,0 l/m 4,8 km/h (1 Bft) 0 min 5,3 km/h (1 Bft)
05.11.2009 23:02 13,8 C 8,3 C 0,0 UV-I 0,0 C 63 % 91 % 0 % 998,1 hPa 0,0 l/m 5,1 km/h (1 Bft) 0 min 5,8 km/h (2 Bft)
05.11.2009 23:04 13,8 C 8,2 C 0,0 UV-I 0,0 C 63 % 91 % 0 % 998,1 hPa 0,0 l/m 6,3 km/h (2 Bft) 0 min 16,6 km/h (3 Bft)
05.11.2009 23:06 13,8 C 8,2 C 0,0 UV-I 0,0 C 63 % 91 % 0 % 998,1 hPa 0,0 l/m 6,0 km/h (2 Bft) 0 min 7,2 km/h (2 Bft)
05.11.2009 23:08 13,8 C 8,3 C 0,0 UV-I 0,0 C 63 % 91 % 0 % 998,1 hPa 0,0 l/m 6,0 km/h (2 Bft) 0 min 7,5 km/h (2 Bft)
05.11.2009 23:10 13,8 C 8,3 C 0,0 UV-I 0,0 C 63 % 91 % 0 % 998,1 hPa 0,0 l/m 5,5 km/h (1 Bft) 0 min 0,0 km/h (0 Bft)
05.11.2009 23:12 13,8 C 8,3 C 0,0 UV-I 0,0 C 63 % 91 % 0 % 998,1 hPa 0,0 l/m 5,1 km/h (1 Bft) 0 min 3,8 km/h (1 Bft)
05.11.2009 23:14 13,8 C 8,3 C 0,0 UV-I 0,0 C 63 % 91 % 0 % 998,1 hPa 0,0 l/m 4,6 km/h (1 Bft) 0 min 9,6 km/h (2 Bft)
05.11.2009 23:16 13,8 C 8,3 C 0,0 UV-I 0,0 C 63 % 91 % 0 % 997,9 hPa 0,0 l/m 4,1 km/h (1 Bft) 0 min 8,2 km/h (2 Bft)
05.11.2009 23:18 13,8 C 8,3 C 0,0 UV-I 0,0 C 63 % 91 % 0 % 997,9 hPa 0,0 l/m 4,3 km/h (1 Bft) 0 min 3,6 km/h (1 Bft)
05.11.2009 23:20 13,8 C 8,3 C 0,0 UV-I 0,0 C 63 % 91 % 0 % 997,9 hPa 0,0 l/m 4,1 km/h (1 Bft) 0 min 5,8 km/h (2 Bft)
05.11.2009 23:22 13,8 C 8,3 C 0,0 UV-I 0,0 C 63 % 91 % 0 % 997,9 hPa 0,0 l/m 4,6 km/h (1 Bft) 0 min 4,1 km/h (1 Bft)
05.11.2009 23:24 13,8 C 8,2 C 0,0 UV-I 0,0 C 63 % 91 % 0 % 997,9 hPa 0,0 l/m 4,3 km/h (1 Bft) 0 min 8,2 km/h (2 Bft)
05.11.2009 23:26 13,8 C 8,3 C 0,0 UV-I 0,0 C 63 % 91 % 0 % 997,9 hPa 0,0 l/m 4,6 km/h (1 Bft) 0 min 10,8 km/h (2 Bft)
05.11.2009 23:28 13,8 C 8,2 C 0,0 UV-I 0,0 C 63 % 91 % 0 % 997,9 hPa 0,0 l/m 4,6 km/h (1 Bft) 0 min 0,0 km/h (0 Bft)
05.11.2009 23:30 13,8 C 8,2 C 0,0 UV-I 0,0 C 63 % 91 % 0 % 997,9 hPa 0,0 l/m 4,8 km/h (1 Bft) 0 min 6,3 km/h (2 Bft)
05.11.2009 23:32 13,6 C 8,2 C 0,0 UV-I 0,0 C 63 % 91 % 0 % 997,9 hPa 0,0 l/m 5,1 km/h (1 Bft) 0 min 6,3 km/h (2 Bft)
05.11.2009 23:34 13,8 C 8,2 C 0,0 UV-I 0,0 C 63 % 91 % 0 % 997,9 hPa 0,0 l/m 5,1 km/h (1 Bft) 0 min 7,2 km/h (2 Bft)
05.11.2009 23:38 13,8 C 8,1 C 0,0 UV-I 0,0 C 63 % 91 % 0 % 998,5 hPa 0,0 l/m 4,6 km/h (1 Bft) 0 min 12,8 km/h (3 Bft)
05.11.2009 23:40 13,6 C 8,1 C 0,0 UV-I 0,0 C 63 % 91 % 0 % 998,5 hPa 0,0 l/m 4,3 km/h (1 Bft) 0 min 4,3 km/h (1 Bft)
05.11.2009 23:44 13,6 C 8,1 C 0,0 UV-I 0,0 C 63 % 91 % 0 % 998,5 hPa 0,0 l/m 3,8 km/h (1 Bft) 0 min 6,7 km/h (2 Bft)
05.11.2009 23:46 13,8 C 8,1 C 0,0 UV-I 0,0 C 63 % 91 % 0 % 998,5 hPa 0,0 l/m 4,3 km/h (1 Bft) 0 min 4,8 km/h (1 Bft)
05.11.2009 23:48 13,8 C 8,1 C 0,0 UV-I 0,0 C 63 % 91 % 0 % 998,5 hPa 0,0 l/m 4,3 km/h (1 Bft) 0 min 6,7 km/h (2 Bft)
05.11.2009 23:50 13,6 C 8,1 C 0,0 UV-I 0,0 C 63 % 91 % 0 % 998,5 hPa 0,0 l/m 5,1 km/h (1 Bft) 0 min 11,5 km/h (2 Bft)
05.11.2009 23:54 13,6 C 8,0 C 0,0 UV-I 0,0 C 63 % 91 % 0 % 998,5 hPa 0,0 l/m 5,8 km/h (2 Bft) 0 min 7,7 km/h (2 Bft)
05.11.2009 23:56 13,6 C 8,0 C 0,0 UV-I 0,0 C 63 % 91 % 0 % 998,3 hPa 0,0 l/m 5,1 km/h (1 Bft) 0 min 6,7 km/h (2 Bft)
_ Min-Zeit 23:32 00:00 00:00 00:00 00:00 10:46 00:00 02:58 - 07:06 - 00:12
Minimum _ 13,6 C 7,9 C 0,0 UV-I 0,0 C 57 % 80 % 0 % 988,1 hPa - 1,7 km/h (1 Bft) - 0,0 km/h (0 Bft)
_ Max-Zeit 00:10 10:44 10:40 09:14 20:02 22:36 09:14 23:38 02:08 10:50 00:00 11:50
Maximum _ 14,3 C 10,1 C 1,1 UV-I 0,6 C 64 % 91 % 17 % 998,5 hPa 0,2 l/m 8,7 km/h
O-NO (2 Bft)
0 min 36,6 km/h
O-NO (5 Bft)
Durchschnitt _ 14,0 C 8,8 C 0,1 UV-I 0,0 C 61 % 87 % 0 % 992,1 hPa #3,4 l/m 5,2 km/h (1 Bft) #0 min. 7,6 km/h (2 Bft)
© 2012 W. Hausmann